Latitude: N 50° 09' 49" Longitude: W 05° 11' 53" Elevation: 168m ASL

There are 14 visitors online

Adverts

<- Previous Day | Today | Next Day ->

All Data for 11 July 2018

Time
A - D
Temp
A - D
Dew Point
A - D
Humidity
A - D
Pressure
A - D
Wind
A - D
Wind Dir Gust
A - D
Rain Rate
A - D
Rain Total
00:00 17.4 14.3 82 1023.2 0.7 N 3.1 0.0 0.0
00:01 17.4 14.3 82 1023.3 0.7 N 3.1 0.0 0.0
00:02 17.4 14.3 82 1023.2 0.7 N 3.1 0.0 0.0
00:03 17.4 14.3 82 1023.1 0.7 N 3.1 0.0 0.0
00:04 17.4 14.3 82 1023.2 0.7 N 3.1 0.0 0.0
00:06 17.4 14.3 82 1023.1 3.1 N 3.1 0.0 0.0
00:07 17.4 14.3 82 1023.1 1.6 E 3.1 0.0 0.0
00:08 17.4 14.3 82 1023.2 3.1 N 3.1 0.0 0.0
00:09 17.4 14.3 82 1023.0 1.6 NW 3.1 0.0 0.0
00:10 17.4 14.3 82 1023.0 1.6 NW 3.1 0.0 0.0
00:11 17.3 14.4 83 1023.0 3.1 W 3.1 0.0 0.0
00:12 17.3 14.2 82 1023.1 1.6 N 3.1 0.0 0.0
00:13 17.3 14.2 82 1023.2 2.2 N 3.1 0.0 0.0
00:14 17.3 14.2 82 1023.1 2.2 NW 3.1 0.0 0.0
00:15 17.3 14.4 83 1023.1 1.6 N 3.1 0.0 0.0
00:16 17.3 14.4 83 1023.2 2.2 NW 3.1 0.0 0.0
00:17 17.3 14.4 83 1023.1 1.6 NW 3.1 0.0 0.0
00:18 17.3 14.4 83 1023.0 2.2 NW 3.1 0.0 0.0
00:19 17.2 14.3 83 1023.1 2.2 E 3.1 0.0 0.0
00:20 17.2 14.3 83 1023.2 2.2 W 3.1 0.0 0.0
00:21 17.2 14.3 83 1023.1 1.6 NW 2.2 0.0 0.0
00:22 17.2 14.3 83 1023.2 3.1 SW 3.1 0.0 0.0
00:23 17.2 14.3 83 1023.0 1.6 SW 3.1 0.0 0.0
00:24 17.2 14.3 83 1022.9 2.2 N 3.1 0.0 0.0
00:26 17.2 14.3 83 1023.0 1.6 N 3.1 0.0 0.0
00:27 17.2 14.3 83 1023.0 3.1 NW 3.1 0.0 0.0
00:28 17.2 14.3 83 1023.1 1.6 N 3.8 0.0 0.0
00:29 17.2 14.3 83 1023.1 1.6 N 3.8 0.0 0.0
00:30 17.2 14.3 83 1023.0 1.6 NW 3.8 0.0 0.0
00:31 17.2 14.5 84 1022.9 2.2 NE 3.8 0.0 0.0
00:32 17.2 14.5 84 1023.2 1.6 NW 3.8 0.0 0.0
00:33 17.2 14.5 84 1022.9 2.2 N 3.8 0.0 0.0
00:34 17.2 14.5 84 1023.1 2.2 W 3.8 0.0 0.0
00:35 17.2 14.5 84 1023.1 2.2 N 3.8 0.0 0.0
00:36 17.2 14.5 84 1023.1 3.1 NW 3.8 0.0 0.0
00:37 17.2 14.5 84 1023.2 2.2 NW 3.8 0.0 0.0
00:38 17.2 14.5 84 1023.2 1.6 N 3.8 0.0 0.0
00:39 17.2 14.5 84 1023.2 2.2 SW 3.1 0.0 0.0
00:40 17.2 14.5 84 1023.3 2.2 NW 3.1 0.0 0.0
00:41 17.2 14.5 84 1023.1 2.2 W 3.1 0.0 0.0
00:42 17.2 14.5 84 1023.1 2.2 NW 3.1 0.0 0.0
00:44 17.2 14.7 85 1023.2 1.6 N 3.1 0.0 0.0
00:45 17.2 14.5 84 1023.0 3.1 NW 3.1 0.0 0.0
00:46 17.2 14.5 84 1023.1 3.8 N 3.8 0.0 0.0
00:47 17.2 14.7 85 1023.1 3.8 NNE 3.8 0.0 0.0
00:48 17.2 14.7 85 1023.2 1.6 NNE 3.8 0.0 0.0
00:49 17.2 14.7 85 1023.2 2.2 NE 3.8 0.0 0.0
00:50 17.2 14.7 85 1023.0 3.1 W 3.8 0.0 0.0
00:51 17.2 14.7 85 1023.1 2.2 N 3.8 0.0 0.0
00:52 17.2 14.7 85 1023.1 1.6 NW 3.8 0.0 0.0
00:53 17.2 14.7 85 1023.0 0.0 NW 3.8 0.0 0.0
00:54 17.2 14.7 85 1023.1 1.6 N 3.8 0.0 0.0
00:55 17.2 14.7 85 1023.1 0.7 W 3.8 0.0 0.0
00:56 17.2 14.7 85 1023.3 2.2 W 3.8 0.0 0.0
00:57 17.2 14.7 85 1023.1 2.2 NE 3.8 0.0 0.0
00:58 17.2 14.7 85 1023.0 1.6 NW 3.1 0.0 0.0
00:59 17.2 14.7 85 1023.1 2.2 W 3.1 0.0 0.0
01:00 17.2 14.7 85 1023.1 3.1 NW 3.1 0.0 0.0
01:02 17.2 14.7 85 1022.8 3.1 NW 3.1 0.0 0.0
01:03 17.2 14.7 85 1023.1 3.1 NW 3.1 0.0 0.0
01:04 17.2 14.7 85 1023.1 3.1 NW 3.1 0.0 0.0
01:05 17.2 14.7 85 1023.0 3.1 NW 3.1 0.0 0.0
01:06 17.2 14.7 85 1022.9 3.1 NW 3.1 0.0 0.0
01:07 17.2 14.7 85 1023.0 3.1 NW 3.1 0.0 0.0
01:08 17.3 14.8 85 1022.9 2.2 N 3.1 0.0 0.0
01:10 17.2 14.7 85 1023.0 3.1 NW 3.8 0.0 0.0
01:11 17.3 14.9 86 1022.8 1.6 SE 3.8 0.0 0.0
01:12 17.2 14.7 85 1022.9 2.2 NW 3.8 0.0 0.0
01:13 17.2 14.7 85 1022.9 2.2 NW 3.8 0.0 0.0
01:14 17.2 14.7 85 1022.9 2.2 NW 3.8 0.0 0.0
01:15 17.2 14.7 85 1022.9 1.6 N 3.8 0.0 0.0
01:16 17.2 14.7 85 1022.8 3.1 N 3.8 0.0 0.0
01:17 17.2 14.7 85 1022.9 2.2 N 3.8 0.0 0.0
01:18 17.2 14.7 85 1022.9 0.7 N 3.8 0.0 0.0
01:19 17.2 14.7 85 1022.9 1.6 NE 3.8 0.0 0.0
01:20 17.2 14.7 85 1022.8 3.1 N 3.1 0.0 0.0
01:21 17.2 14.7 85 1022.8 1.6 N 3.1 0.0 0.0
01:22 17.2 14.7 85 1022.8 1.6 NW 3.1 0.0 0.0
01:23 17.2 14.7 85 1022.8 0.7 NW 3.1 0.0 0.0
01:24 17.2 14.7 85 1022.8 1.6 NE 3.1 0.0 0.0
01:25 17.2 14.7 85 1022.8 0.7 NW 3.1 0.0 0.0
01:26 17.2 14.7 85 1022.8 0.7 N 3.1 0.0 0.0
01:27 17.2 14.7 85 1022.9 3.1 NW 3.1 0.0 0.0
01:29 17.2 14.7 85 1022.8 3.1 N 3.1 0.0 0.0
01:30 17.1 14.6 85 1022.9 2.2 N 3.1 0.0 0.0
01:31 17.1 14.6 85 1022.9 2.2 N 3.1 0.0 0.0
01:32 17.2 14.7 85 1022.9 1.6 N 3.1 0.0 0.0
01:33 17.1 14.6 85 1022.8 2.2 NW 3.1 0.0 0.0
01:34 17.1 14.6 85 1023.0 0.7 N 3.1 0.0 0.0
01:35 17.1 14.6 85 1022.8 1.6 NW 3.1 0.0 0.0
01:36 17.1 14.6 85 1022.9 2.2 N 3.1 0.0 0.0
01:37 17.1 14.6 85 1022.8 0.7 N 3.1 0.0 0.0
01:38 17.1 14.6 85 1022.9 0.7 W 3.1 0.0 0.0
01:39 17.1 14.6 85 1022.9 2.2 NW 3.1 0.0 0.0
01:40 17.1 14.6 85 1022.9 1.6 W 3.1 0.0 0.0
01:41 17.1 14.6 85 1022.8 1.6 W 3.1 0.0 0.0
01:42 17.1 14.6 85 1022.8 2.2 NW 3.1 0.0 0.0
01:43 17.0 14.5 85 1022.9 1.6 NW 3.1 0.0 0.0
01:44 17.0 14.5 85 1022.8 3.1 NW 3.1 0.0 0.0
01:45 17.0 14.5 85 1022.8 1.6 NW 3.1 0.0 0.0
01:46 17.0 14.5 85 1022.8 0.7 NE 3.1 0.0 0.0
01:48 17.0 14.3 84 1022.8 1.6 NW 3.1 0.0 0.0
01:49 17.0 14.3 84 1022.9 1.6 N 3.1 0.0 0.0
01:50 17.0 14.3 84 1022.9 1.6 N 3.1 0.0 0.0
01:51 17.0 14.3 84 1022.8 1.6 N 3.1 0.0 0.0
01:52 17.0 14.3 84 1022.8 0.7 NW 3.1 0.0 0.0
01:53 17.0 14.3 84 1022.7 0.7 N 3.1 0.0 0.0
01:54 17.0 14.3 84 1022.7 2.2 N 3.1 0.0 0.0
01:55 17.0 14.3 84 1022.7 0.7 NW 3.1 0.0 0.0
01:56 17.0 14.3 84 1022.8 3.1 N 3.1 0.0 0.0
01:57 16.9 14.2 84 1022.8 2.2 NW 3.1 0.0 0.0
01:58 16.9 14.2 84 1022.8 3.8 N 3.8 0.0 0.0
01:59 16.9 14.2 84 1022.7 2.2 NW 3.8 0.0 0.0
02:00 16.9 14.2 84 1022.7 3.8 NW 3.8 0.0 0.0
02:01 16.9 14.2 84 1022.7 3.8 NW 3.8 0.0 0.0
02:03 16.9 14.2 84 1022.8 3.8 NW 3.8 0.0 0.0
02:04 16.9 14.2 84 1022.8 3.8 NW 3.8 0.0 0.0
02:05 16.9 14.2 84 1022.7 3.8 NW 3.8 0.0 0.0
02:06 16.9 14.2 84 1022.7 3.1 N 3.8 0.0 0.0
02:08 16.9 14.2 84 1022.7 1.6 NW 3.8 0.0 0.0
02:09 16.9 14.2 84 1022.7 1.6 N 3.8 0.0 0.0
02:10 16.9 14.2 84 1022.7 1.6 W 3.8 0.0 0.0
02:11 16.9 14.2 84 1022.6 1.6 NE 3.8 0.0 0.0
02:12 16.9 14.2 84 1022.7 0.7 N 3.8 0.0 0.0
02:13 16.9 14.2 84 1022.6 0.7 N 3.8 0.0 0.0
02:14 16.9 14.2 84 1022.7 0.7 NW 3.8 0.0 0.0
02:15 16.9 14.2 84 1022.7 0.7 NE 3.8 0.0 0.0
02:16 16.9 14.2 84 1022.6 1.6 N 3.8 0.0 0.0
02:17 16.9 14.2 84 1022.8 2.2 NW 3.8 0.0 0.0
02:18 16.9 14.2 84 1022.8 1.6 N 3.8 0.0 0.0
02:19 16.9 14.2 84 1022.6 3.1 N 3.8 0.0 0.0
02:20 16.9 14.2 84 1022.6 1.6 N 3.8 0.0 0.0
02:21 16.9 14.2 84 1022.5 1.6 NE 3.8 0.0 0.0
02:22 16.9 14.2 84 1022.6 1.6 NNE 3.8 0.0 0.0
02:23 16.9 14.2 84 1022.6 2.2 N 3.8 0.0 0.0
02:24 16.9 14.2 84 1022.7 3.1 NNE 3.8 0.0 0.0
02:25 16.9 14.2 84 1022.7 2.2 NNE 3.8 0.0 0.0
02:26 16.8 14.1 84 1022.7 2.2 N 3.1 0.0 0.0
02:28 16.9 14.2 84 1022.6 3.1 NW 3.1 0.0 0.0
02:29 16.9 14.2 84 1022.7 1.6 N 3.1 0.0 0.0
02:30 16.8 14.1 84 1022.6 3.1 N 3.1 0.0 0.0
02:31 16.8 14.1 84 1022.8 3.1 NE 3.1 0.0 0.0
02:36 16.8 14.1 84 1022.6 1.6 NW 3.1 0.0 0.0
02:37 16.8 14.1 84 1022.6 2.2 N 3.1 0.0 0.0
02:38 16.8 14.1 84 1022.7 3.1 NE 3.1 0.0 0.0
02:39 16.8 14.1 84 1022.7 2.2 NW 3.1 0.0 0.0
02:40 16.8 14.1 84 1022.7 2.2 NW 3.1 0.0 0.0
02:41 16.8 14.1 84 1022.7 3.8 NW 3.8 0.0 0.0
02:42 16.8 14.1 84 1022.5 4.5 N 4.5 0.0 0.0
02:43 16.8 14.1 84 1022.6 3.8 NNE 4.5 0.0 0.0
02:44 16.8 14.1 84 1022.6 3.1 NE 4.5 0.0 0.0
02:45 16.8 14.1 84 1022.5 3.8 N 4.5 0.0 0.0
02:46 16.8 14.1 84 1022.6 3.1 N 4.5 0.0 0.0
02:47 16.8 14.1 84 1022.7 3.1 N 4.5 0.0 0.0
02:48 16.8 14.1 84 1022.5 2.2 N 4.5 0.0 0.0
02:49 16.8 14.1 84 1022.5 2.2 NE 4.5 0.0 0.0
02:50 16.8 14.1 84 1022.7 3.8 NE 4.5 0.0 0.0
02:51 16.7 14.0 84 1022.5 3.1 NNE 4.5 0.0 0.0
02:52 16.7 14.0 84 1022.5 2.2 N 4.5 0.0 0.0
02:53 16.7 14.0 84 1022.5 2.2 E 4.5 0.0 0.0
02:54 16.7 14.0 84 1022.5 4.5 NE 4.5 0.0 0.0
02:55 16.7 14.0 84 1022.3 3.8 N 4.5 0.0 0.0
02:58 16.7 14.0 84 1022.5 2.2 NE 4.5 0.0 0.0
02:59 16.7 14.0 84 1022.4 4.5 N 4.5 0.0 0.0
03:00 16.7 14.0 84 1022.4 3.1 N 4.5 0.0 0.0
03:01 16.7 14.0 84 1022.3 3.8 N 4.5 0.0 0.0
03:02 16.7 14.0 84 1022.3 3.8 N 4.5 0.0 0.0
03:03 16.7 14.0 84 1022.4 3.8 N 4.5 0.0 0.0
03:04 16.7 14.0 84 1022.4 3.8 N 4.5 0.0 0.0
03:05 16.7 14.0 84 1022.4 3.8 N 4.5 0.0 0.0
03:06 16.6 13.9 84 1022.3 2.2 NW 4.5 0.0 0.0
03:07 16.6 13.9 84 1022.3 4.5 NW 4.5 0.0 0.0
03:08 16.6 13.9 84 1022.3 3.8 N 4.5 0.0 0.0
03:09 16.6 13.9 84 1022.3 2.2 NE 4.5 0.0 0.0
03:10 16.6 13.9 84 1022.2 3.1 N 4.5 0.0 0.0
03:11 16.6 13.9 84 1022.3 2.2 E 4.5 0.0 0.0
03:12 16.6 13.9 84 1022.3 3.1 NW 4.5 0.0 0.0
03:13 16.6 13.9 84 1022.3 1.6 N 4.5 0.0 0.0
03:14 16.5 13.8 84 1022.5 3.1 NE 4.5 0.0 0.0
03:15 16.5 13.8 84 1022.4 3.1 NE 4.5 0.0 0.0
03:16 16.5 13.8 84 1022.4 3.1 N 4.5 0.0 0.0
03:17 16.5 13.8 84 1022.5 3.1 N 3.8 0.0 0.0
03:18 16.5 13.8 84 1022.4 2.2 N 3.8 0.0 0.0
03:19 16.5 13.8 84 1022.4 2.2 N 3.1 0.0 0.0
03:20 16.5 13.8 84 1022.4 3.1 N 3.1 0.0 0.0
03:21 16.5 13.8 84 1022.3 3.1 NE 3.1 0.0 0.0
03:22 16.5 13.8 84 1022.3 3.1 NE 3.1 0.0 0.0
03:23 16.5 13.8 84 1022.3 4.5 N 4.5 0.0 0.0
03:24 16.5 13.8 84 1022.3 3.1 NE 4.5 0.0 0.0
03:25 16.5 13.8 84 1022.3 3.1 NE 4.5 0.0 0.0
03:26 16.5 13.8 84 1022.5 2.2 N 4.5 0.0 0.0
03:27 16.5 13.8 84 1022.4 2.2 NE 4.5 0.0 0.0
03:28 16.5 13.8 84 1022.4 2.2 W 4.5 0.0 0.0
03:29 16.5 13.8 84 1022.4 3.8 ENE 4.5 0.0 0.0
03:30 16.5 13.8 84 1022.3 3.1 N 4.5 0.0 0.0
03:31 16.4 13.9 85 1022.3 3.1 NE 4.5 0.0 0.0
03:32 16.4 13.9 85 1022.4 2.2 E 4.5 0.0 0.0
03:33 16.4 13.9 85 1022.3 4.5 NE 5.4 0.0 0.0
03:34 16.4 13.9 85 1022.3 3.8 NE 5.4 0.0 0.0
03:35 16.4 13.9 85 1022.5 3.8 NE 5.4 0.0 0.0
03:36 16.4 13.9 85 1022.3 4.5 NE 5.4 0.0 0.0
03:37 16.4 13.9 85 1022.3 3.1 NE 5.4 0.0 0.0
03:38 16.4 13.9 85 1022.3 3.1 NE 5.4 0.0 0.0
03:39 16.4 13.9 85 1022.3 3.8 NE 5.4 0.0 0.0
03:40 16.4 13.9 85 1022.5 3.1 NE 5.4 0.0 0.0
03:41 16.4 13.9 85 1022.3 3.8 NE 5.4 0.0 0.0
03:42 16.4 13.9 85 1022.3 3.1 NE 5.4 0.0 0.0
03:43 16.4 13.9 85 1022.2 3.1 NNE 5.4 0.0 0.0
03:44 16.3 13.8 85 1022.3 3.1 N 4.5 0.0 0.0
03:45 16.3 13.8 85 1022.3 3.8 NE 4.5 0.0 0.0
03:46 16.3 13.8 85 1022.3 3.1 N 4.5 0.0 0.0
03:47 16.3 13.8 85 1022.3 3.8 NE 3.8 0.0 0.0
03:48 16.3 13.8 85 1022.5 3.8 NE 3.8 0.0 0.0
03:49 16.3 13.8 85 1022.3 3.8 N 4.5 0.0 0.0
03:50 16.4 13.9 85 1022.4 3.1 NE 4.5 0.0 0.0
03:51 16.2 13.7 85 1022.2 3.1 NE 4.5 0.0 0.0
03:52 16.2 13.7 85 1022.3 3.1 NW 4.5 0.0 0.0
03:53 16.2 13.7 85 1022.3 3.1 NE 4.5 0.0 0.0
03:54 16.2 13.7 85 1022.3 2.2 NE 4.5 0.0 0.0
03:55 16.2 13.7 85 1022.3 2.2 NE 4.5 0.0 0.0
03:56 16.2 13.7 85 1022.1 3.1 NE 4.5 0.0 0.0
03:57 16.2 13.7 85 1022.1 3.1 N 4.5 0.0 0.0
03:58 16.1 13.6 85 1022.3 3.1 NE 4.5 0.0 0.0
03:59 16.1 13.6 85 1022.2 3.1 NW 4.5 0.0 0.0
04:00 16.1 13.6 85 1022.3 3.1 NE 3.8 0.0 0.0
04:01 16.1 13.6 85 1022.3 3.1 N 3.8 0.0 0.0
04:02 16.1 13.6 85 1022.3 3.8 N 3.8 0.0 0.0
04:03 16.1 13.6 85 1022.3 3.8 NE 3.8 0.0 0.0
04:04 16.1 13.6 85 1022.1 3.1 N 3.8 0.0 0.0
04:05 16.1 13.6 85 1022.3 3.8 NE 3.8 0.0 0.0
04:06 16.0 13.5 85 1022.3 2.2 NE 3.8 0.0 0.0
04:08 16.0 13.7 86 1022.2 3.1 NE 3.8 0.0 0.0
04:09 16.0 13.7 86 1022.2 3.1 NE 3.8 0.0 0.0
04:10 16.0 13.7 86 1022.2 3.1 N 3.8 0.0 0.0
04:11 16.0 13.7 86 1022.2 3.1 NE 3.8 0.0 0.0
04:12 16.0 13.7 86 1022.3 1.6 NE 3.8 0.0 0.0
04:13 16.0 13.7 86 1022.3 3.1 NE 3.8 0.0 0.0
04:14 16.0 13.7 86 1022.2 3.1 NNE 3.8 0.0 0.0
04:15 16.0 13.7 86 1022.1 3.1 E 3.1 0.0 0.0
04:16 16.0 13.7 86 1022.1 3.1 E 3.1 0.0 0.0
04:17 16.0 13.7 86 1022.2 1.6 N 3.1 0.0 0.0
04:18 16.0 13.7 86 1022.3 3.1 NE 3.1 0.0 0.0
04:19 16.0 13.7 86 1022.3 3.1 N 3.1 0.0 0.0
04:20 16.0 13.7 86 1022.2 3.1 N 3.1 0.0 0.0
04:21 15.9 13.6 86 1022.2 3.1 N 3.1 0.0 0.0
04:22 15.9 13.6 86 1022.2 2.2 N 3.1 0.0 0.0
04:23 15.9 13.6 86 1022.1 3.1 NE 3.1 0.0 0.0
04:24 15.9 13.6 86 1022.3 2.2 N 3.1 0.0 0.0
04:25 15.9 13.7 87 1022.2 0.7 NW 3.1 0.0 0.0
04:27 15.9 13.7 87 1022.0 0.7 W 3.1 0.0 0.0
04:28 15.9 13.7 87 1022.1 0.7 W 3.1 0.0 0.0
04:29 15.9 13.7 87 1022.2 0.7 NW 3.1 0.0 0.0
04:30 15.9 13.7 87 1022.1 0.7 S 3.1 0.0 0.0
04:31 15.9 13.7 87 1022.2 0.7 SE 3.1 0.0 0.0
04:32 15.9 13.7 87 1022.3 0.0 SE 3.1 0.0 0.0
04:33 15.8 13.6 87 1022.2 0.0 SE 2.2 0.0 0.0
04:34 15.8 13.6 87 1022.2 0.0 SE 1.6 0.0 0.0
04:35 15.8 13.6 87 1022.2 0.0 W 0.7 0.0 0.0
04:36 15.8 13.6 87 1022.3 0.0 N 0.7 0.0 0.0
04:37 15.8 13.6 87 1022.2 3.1 N 3.1 0.0 0.0
04:38 15.8 13.6 87 1022.2 2.2 NE 3.1 0.0 0.0
04:39 15.8 13.6 87 1022.2 3.1 NW 3.1 0.0 0.0
04:40 15.8 13.6 87 1022.2 1.6 N 3.1 0.0 0.0
04:41 15.8 13.6 87 1022.1 2.2 NE 3.1 0.0 0.0
04:42 15.8 13.6 87 1022.2 2.2 NE 3.1 0.0 0.0
04:43 15.8 13.6 87 1022.3 1.6 NNW 3.1 0.0 0.0
04:44 15.8 13.6 87 1022.2 1.6 NE 3.1 0.0 0.0
04:45 15.8 13.6 87 1022.1 1.6 NE 3.1 0.0 0.0
04:46 15.8 13.6 87 1022.1 2.2 N 3.1 0.0 0.0
04:47 15.8 13.6 87 1022.2 1.6 NE 3.1 0.0 0.0
04:48 15.8 13.6 87 1022.1 1.6 NE 3.1 0.0 0.0
04:49 15.8 13.6 87 1022.3 1.6 N 3.1 0.0 0.0
04:50 15.8 13.6 87 1022.2 2.2 NW 2.2 0.0 0.0
04:51 15.8 13.6 87 1022.1 3.1 ENE 3.1 0.0 0.0
04:52 15.8 13.6 87 1022.2 1.6 NW 3.1 0.0 0.0
04:53 15.8 13.8 88 1022.1 2.2 N 3.1 0.0 0.0
04:54 15.8 13.8 88 1022.1 2.2 NW 3.1 0.0 0.0
04:55 15.8 13.6 87 1022.2 1.6 NW 3.1 0.0 0.0
04:57 15.8 13.8 88 1022.1 2.2 N 3.1 0.0 0.0
04:58 15.8 13.8 88 1022.1 2.2 NW 3.1 0.0 0.0
04:59 15.8 13.8 88 1022.2 1.6 N 3.1 0.0 0.0
05:00 15.8 13.8 88 1022.0 2.2 WNW 3.1 0.0 0.0
05:01 15.8 13.8 88 1022.1 2.2 WNW 3.1 0.0 0.0
05:02 15.8 13.8 88 1022.1 2.2 WNW 3.1 0.0 0.0
05:03 15.8 13.8 88 1022.1 2.2 WNW 3.1 0.0 0.0
05:04 15.8 13.8 88 1022.0 2.2 WNW 3.1 0.0 0.0
05:05 15.8 13.8 88 1022.1 2.2 WNW 3.1 0.0 0.0
05:06 15.8 13.8 88 1022.1 2.2 NW 3.1 0.0 0.0
05:07 15.8 13.8 88 1022.2 2.2 NW 3.1 0.0 0.0
05:08 15.8 13.8 88 1022.1 1.6 WNW 3.1 0.0 0.0
05:09 15.8 13.8 88 1022.0 1.6 NW 2.2 0.0 0.0
05:10 15.8 13.8 88 1022.1 1.6 NW 2.2 0.0 0.0
05:11 15.8 13.8 88 1022.1 2.2 NW 2.2 0.0 0.0
05:12 15.8 14.0 89 1022.2 1.6 NW 2.2 0.0 0.0
05:14 15.9 13.9 88 1022.2 1.6 NW 2.2 0.0 0.0
05:15 15.9 14.1 89 1022.0 1.6 NW 2.2 0.0 0.0
05:16 15.9 14.1 89 1022.0 1.6 NE 2.2 0.0 0.0
05:17 15.9 14.1 89 1022.1 0.7 N 2.2 0.0 0.0
05:18 15.9 14.1 89 1022.1 0.7 N 2.2 0.0 0.0
05:19 15.9 14.1 89 1022.1 1.6 W 2.2 0.0 0.0
05:20 15.9 14.1 89 1022.1 3.1 N 3.1 0.0 0.0
05:21 15.9 14.1 89 1022.1 2.2 N 3.1 0.0 0.0
05:22 15.9 14.1 89 1022.0 2.2 N 3.1 0.0 0.0
05:23 15.9 14.1 89 1022.1 1.6 S 3.1 0.0 0.0
05:24 15.9 14.1 89 1022.1 1.6 W 3.1 0.0 0.0
05:25 15.9 14.1 89 1022.1 3.1 NW 3.1 0.0 0.0
05:26 15.9 14.1 89 1022.2 3.1 NW 3.1 0.0 0.0
05:27 16.0 14.2 89 1022.2 2.2 NW 3.1 0.0 0.0
05:28 15.9 14.1 89 1022.2 3.1 N 3.1 0.0 0.0
05:29 15.9 14.1 89 1022.1 2.2 WNW 3.1 0.0 0.0
05:30 15.9 14.1 89 1022.1 2.2 WNW 3.1 0.0 0.0
05:31 16.0 14.4 90 1022.1 1.6 SW 3.1 0.0 0.0
05:32 16.0 14.4 90 1022.2 1.6 N 3.1 0.0 0.0
05:33 16.0 14.4 90 1022.1 1.6 NE 3.1 0.0 0.0
05:34 16.0 14.4 90 1022.1 1.6 N 3.1 0.0 0.0
05:35 16.0 14.4 90 1022.0 1.6 N 3.1 0.0 0.0
05:36 15.9 14.3 90 1022.1 1.6 N 3.1 0.0 0.0
05:37 15.9 14.3 90 1022.0 2.2 N 3.1 0.0 0.0
05:38 15.9 14.3 90 1022.0 2.2 NW 3.1 0.0 0.0
05:39 15.9 14.3 90 1022.2 3.1 W 3.1 0.0 0.0
05:40 15.9 14.3 90 1022.2 1.6 NW 3.1 0.0 0.0
05:41 15.9 14.3 90 1022.2 2.2 N 3.1 0.0 0.0
05:42 15.9 14.3 90 1022.1 1.6 NE 3.1 0.0 0.0
05:43 15.9 14.3 90 1022.2 1.6 N 3.1 0.0 0.0
05:44 15.9 14.3 90 1022.1 0.7 W 3.1 0.0 0.0
05:45 15.9 14.3 90 1022.1 2.2 NE 3.1 0.0 0.0
05:46 16.0 14.4 90 1022.2 1.6 NE 3.1 0.0 0.0
05:47 15.9 14.3 90 1022.1 2.2 N 3.1 0.0 0.0
05:48 15.9 14.3 90 1022.2 3.1 NE 3.1 0.0 0.0
05:49 15.9 14.3 90 1022.0 1.6 NW 3.1 0.0 0.0
05:50 15.9 14.3 90 1022.0 1.6 WNW 3.1 0.0 0.0
05:51 15.9 14.3 90 1022.1 1.6 N 3.1 0.0 0.0
05:52 15.9 14.3 90 1022.1 1.6 NE 3.1 0.0 0.0
05:53 15.9 14.3 90 1022.1 0.7 N 3.1 0.0 0.0
05:54 15.9 14.3 90 1022.0 1.6 NW 3.1 0.0 0.0
05:55 15.9 14.3 90 1022.1 3.8 N 3.8 0.0 0.0
05:56 15.9 14.3 90 1022.0 1.6 SE 3.8 0.0 0.0
05:57 15.9 14.3 90 1022.0 2.2 NE 3.8 0.0 0.0
05:58 15.9 14.3 90 1022.1 2.2 NE 3.8 0.0 0.0
05:59 15.9 14.3 90 1022.0 1.6 NE 3.8 0.0 0.0
06:00 15.9 14.3 90 1022.0 1.6 NE 3.8 0.0 0.0
06:01 15.9 14.3 90 1022.0 1.6 NE 3.8 0.0 0.0
06:02 15.9 14.3 90 1021.8 1.6 NE 3.8 0.0 0.0
06:03 15.9 14.3 90 1021.8 1.6 NE 3.8 0.0 0.0
06:04 15.9 14.3 90 1022.0 1.6 NE 3.8 0.0 0.0
06:05 15.9 14.3 90 1021.9 1.6 NE 2.2 0.0 0.0
06:06 15.9 14.4 91 1021.9 1.6 NE 2.2 0.0 0.0
06:07 16.0 14.5 91 1021.8 1.6 NE 2.2 0.0 0.0
06:08 16.0 14.5 91 1021.9 2.2 N 3.1 0.0 0.0
06:09 16.0 14.5 91 1022.0 2.2 NE 3.1 0.0 0.0
06:10 16.0 14.5 91 1021.8 3.1 NE 3.1 0.0 0.0
06:11 16.0 14.5 91 1021.9 2.2 NE 3.1 0.0 0.0
06:13 16.0 14.5 91 1021.8 2.2 NNE 3.1 0.0 0.0
06:14 16.0 14.5 91 1021.9 1.6 N 3.1 0.0 0.0
06:15 16.0 14.5 91 1021.8 2.2 NE 3.1 0.0 0.0
06:16 16.0 14.5 91 1021.8 2.2 N 3.1 0.0 0.0
06:17 16.0 14.5 91 1022.1 1.6 NE 3.1 0.0 0.0
06:18 16.0 14.5 91 1021.9 3.1 NE 3.1 0.0 0.0
06:19 16.0 14.5 91 1021.9 3.1 NE 3.1 0.0 0.0
06:20 16.0 14.5 91 1022.0 3.1 NE 3.1 0.0 0.0
06:21 16.0 14.5 91 1022.1 3.1 NE 3.1 0.0 0.0
06:22 16.0 14.5 91 1022.0 1.6 N 3.1 0.0 0.0
06:23 16.0 14.7 92 1021.9 2.2 NE 3.1 0.0 0.0
06:24 16.0 14.5 91 1022.0 1.6 NNE 3.1 0.0 0.0
06:25 16.0 14.5 91 1022.0 1.6 NNE 3.1 0.0 0.0
06:26 16.1 14.8 92 1022.0 0.7 N 3.1 0.0 0.0
06:28 16.1 14.8 92 1022.0 2.2 N 3.1 0.0 0.0
06:29 16.1 14.8 92 1021.9 2.2 N 3.1 0.0 0.0
06:30 16.1 14.8 92 1022.0 2.2 N 3.1 0.0 0.0
06:31 16.1 14.8 92 1022.0 2.2 NW 3.1 0.0 0.0
06:32 16.1 14.8 92 1022.0 1.6 NW 3.1 0.0 0.0
06:33 16.1 14.8 92 1022.1 1.6 N 3.1 0.0 0.0
06:34 16.1 14.8 92 1022.1 3.1 NW 3.1 0.0 0.0
06:35 16.1 14.8 92 1022.0 2.2 NW 3.1 0.0 0.0
06:36 16.1 14.8 92 1022.2 3.1 NW 3.1 0.0 0.0
06:37 16.1 14.8 92 1022.2 3.8 NW 3.8 0.0 0.0
06:38 16.1 14.8 92 1022.2 3.1 NW 3.8 0.0 0.0
06:39 16.1 14.8 92 1022.0 3.1 N 3.8 0.0 0.0
06:40 16.1 14.8 92 1022.2 4.5 NW 4.5 0.0 0.0
06:42 16.2 14.9 92 1022.1 0.7 N 4.5 0.0 0.0
06:43 16.2 14.9 92 1022.0 2.2 N 4.5 0.0 0.0
06:44 16.2 14.9 92 1022.2 2.2 W 4.5 0.0 0.0
06:45 16.2 14.9 92 1022.2 2.2 W 4.5 0.0 0.0
06:46 16.2 14.9 92 1022.1 4.5 NW 4.5 0.0 0.0
06:47 16.2 14.9 92 1022.2 3.8 W 4.5 0.0 0.0
06:48 16.2 14.9 92 1022.3 2.2 N 4.5 0.0 0.0
06:49 16.2 14.9 92 1022.1 3.1 E 4.5 0.0 0.0
06:50 16.2 14.9 92 1022.1 3.1 NW 4.5 0.0 0.0
06:51 16.2 14.9 92 1022.2 2.2 ENE 4.5 0.0 0.0
06:52 16.2 14.9 92 1022.3 2.2 WNW 4.5 0.0 0.0
06:53 16.4 15.1 92 1022.2 3.1 N 4.5 0.0 0.0
06:54 16.2 14.9 92 1022.2 3.1 N 4.5 0.0 0.0
06:55 16.2 14.9 92 1022.2 2.2 N 4.5 0.0 0.0
06:57 16.2 15.1 93 1022.3 2.2 NW 3.8 0.0 0.0
06:58 16.3 15.2 93 1022.2 3.1 SW 3.8 0.0 0.0
06:59 16.2 15.1 93 1022.2 2.2 NW 3.8 0.0 0.0
07:00 16.3 15.2 93 1022.3 3.1 NW 3.8 0.0 0.0
07:01 16.3 15.2 93 1022.4 3.1 NW 3.8 0.0 0.0
07:02 16.3 15.2 93 1022.3 6.9 NW 6.9 0.0 0.0
07:03 16.3 15.2 93 1022.4 3.8 NW 6.9 0.0 0.0
07:04 16.3 15.2 93 1022.4 3.8 NW 6.9 0.0 0.0
07:05 16.3 15.2 93 1022.2 3.8 N 6.9 0.0 0.0
07:06 16.3 15.2 93 1022.2 3.1 N 6.9 0.0 0.0
07:07 16.4 15.3 93 1022.3 4.5 N 6.9 0.0 0.0
07:08 16.4 15.3 93 1022.3 5.4 NW 6.9 0.0 0.0
07:09 16.4 15.3 93 1022.4 3.1 NW 6.9 0.0 0.0
07:10 16.4 15.3 93 1022.4 4.5 SW 6.9 0.0 0.0
07:11 16.4 15.3 93 1022.3 3.1 NW 6.9 0.0 0.0
07:13 16.4 15.3 93 1022.4 3.1 N 5.4 0.0 0.0
07:14 16.5 15.4 93 1022.4 0.7 NW 5.4 0.0 0.0
07:15 16.5 15.4 93 1022.4 4.5 NE 5.4 0.0 0.0
07:16 16.5 15.4 93 1022.4 3.1 NE 5.4 0.0 0.0
07:17 16.5 15.4 93 1022.3 4.5 NW 5.4 0.0 0.0
07:18 16.5 15.4 93 1022.3 4.5 NW 4.5 0.0 0.0
07:19 16.5 15.4 93 1022.3 3.8 NW 4.5 0.0 0.0
07:20 16.5 15.4 93 1022.3 3.1 N 4.5 0.0 0.0
07:21 16.5 15.5 94 1022.4 2.2 S 4.5 0.0 0.0
07:22 16.6 15.5 93 1022.3 1.6 N 4.5 0.0 0.0
07:23 16.6 15.6 94 1022.4 1.6 NW 4.5 0.0 0.0
07:24 16.6 15.5 93 1022.2 3.1 NW 4.5 0.0 0.0
07:25 16.6 15.6 94 1022.4 3.8 NW 4.5 0.0 0.0
07:26 16.6 15.6 94 1022.4 3.1 WNW 4.5 0.0 0.0
07:28 16.7 15.7 94 1022.5 2.2 N 4.5 0.0 0.0
07:29 16.7 15.7 94 1022.3 5.4 WNW 5.4 0.0 0.0
07:30 16.7 15.7 94 1022.3 3.8 SW 5.4 0.0 0.0
07:31 16.8 15.8 94 1022.3 3.1 N 5.4 0.0 0.0
07:32 16.8 15.8 94 1022.3 2.2 NE 5.4 0.0 0.0
07:33 16.8 15.8 94 1022.4 4.5 N 5.4 0.0 0.0
07:34 16.8 15.8 94 1022.4 4.5 N 5.4 0.0 0.0
07:35 16.9 15.9 94 1022.4 2.2 NW 5.4 0.0 0.0
07:36 16.9 15.9 94 1022.3 3.1 N 5.4 0.0 0.0
07:37 17.0 16.0 94 1022.3 2.2 NW 5.4 0.0 0.0
07:38 17.0 16.0 94 1022.4 4.5 NW 5.4 0.0 0.0
07:39 17.0 16.0 94 1022.4 1.6 N 5.4 0.0 0.0
07:40 17.0 16.0 94 1022.4 2.2 NE 5.4 0.0 0.0
07:41 17.0 16.0 94 1022.3 3.8 N 4.5 0.0 0.0
07:42 17.1 16.1 94 1022.5 3.8 N 4.5 0.0 0.0
07:44 17.2 16.2 94 1022.3 6.0 NW 6.0 0.0 0.0
07:45 17.2 16.2 94 1022.4 3.1 NW 6.0 0.0 0.0
07:46 17.3 16.3 94 1022.4 3.1 SW 6.0 0.0 0.0
07:47 17.3 16.3 94 1022.5 3.8 NE 6.0 0.0 0.0
07:48 17.3 16.3 94 1022.5 3.1 W 6.0 0.0 0.0
07:49 17.4 16.6 95 1022.4 3.1 NW 6.0 0.0 0.0
07:50 17.4 16.6 95 1022.4 3.1 NW 6.0 0.0 0.0
07:51 17.4 16.4 94 1022.4 3.8 N 6.0 0.0 0.0
07:52 17.4 16.4 94 1022.5 2.2 NW 6.0 0.0 0.0
07:53 17.4 16.4 94 1022.4 3.1 NW 6.0 0.0 0.0
07:54 17.4 16.4 94 1022.5 3.1 NW 6.0 0.0 0.0
07:55 17.4 16.6 95 1022.4 3.1 NW 6.0 0.0 0.0
07:56 17.5 16.7 95 1022.5 3.1 N 3.8 0.0 0.0
07:57 17.5 16.7 95 1022.5 2.2 NW 3.8 0.0 0.0
07:59 17.5 16.7 95 1022.5 3.1 NW 3.8 0.0 0.0
08:00 17.5 16.5 94 1022.5 2.2 NW 3.8 0.0 0.0
08:01 17.6 16.6 94 1022.6 2.2 N 3.1 0.0 0.0
08:02 17.6 16.8 95 1022.5 0.7 N 3.1 0.0 0.0
08:03 17.6 16.8 95 1022.5 1.6 NW 3.1 0.0 0.0
08:04 17.6 16.8 95 1022.5 1.6 NW 3.1 0.0 0.0
08:05 17.6 16.6 94 1022.5 0.7 NW 3.1 0.0 0.0
08:06 17.6 16.6 94 1022.6 1.6 NE 3.1 0.0 0.0
08:07 17.6 16.6 94 1022.3 1.6 NW 3.1 0.0 0.0
08:08 17.6 16.6 94 1022.5 2.2 NW 3.1 0.0 0.0
08:09 17.7 16.7 94 1022.5 3.8 SE 3.8 0.0 0.0
08:10 17.7 16.7 94 1022.5 2.2 N 3.8 0.0 0.0
08:11 17.7 16.7 94 1022.5 2.2 WNW 3.8 0.0 0.0
08:13 17.7 16.7 94 1022.5 2.2 NW 3.8 0.0 0.0
08:14 17.7 16.7 94 1022.6 3.8 N 3.8 0.0 0.0
08:15 17.7 16.7 94 1022.5 2.2 NW 3.8 0.0 0.0
08:16 17.7 16.7 94 1022.5 2.2 N 3.8 0.0 0.0
08:17 17.7 16.7 94 1022.5 2.2 NW 3.8 0.0 0.0
08:18 17.7 16.7 94 1022.5 2.2 NW 3.8 0.0 0.0
08:19 17.8 16.8 94 1022.5 2.2 SW 3.8 0.0 0.0
08:20 17.7 16.7 94 1022.5 2.2 N 3.8 0.0 0.0
08:21 17.7 16.7 94 1022.4 2.2 N 3.8 0.0 0.0
08:22 17.8 16.8 94 1022.4 2.2 NW 3.8 0.0 0.0
08:23 17.8 16.8 94 1022.3 1.6 NW 3.8 0.0 0.0
08:24 17.8 16.8 94 1022.4 3.8 N 3.8 0.0 0.0
08:25 17.8 16.8 94 1022.6 2.2 NW 3.8 0.0 0.0
08:26 17.8 16.8 94 1022.5 1.6 NW 3.8 0.0 0.0
08:28 17.8 16.8 94 1022.6 2.2 N 3.8 0.0 0.0
08:29 17.8 16.8 94 1022.4 2.2 N 3.8 0.0 0.0
08:30 17.8 16.8 94 1022.4 2.2 N 3.8 0.0 0.0
08:31 17.8 16.8 94 1022.5 3.8 NE 3.8 0.0 0.0
08:32 17.9 16.9 94 1022.6 3.8 NW 3.8 0.0 0.0
08:33 17.9 16.9 94 1022.6 3.1 NE 3.8 0.0 0.0
08:34 17.9 16.9 94 1022.6 2.2 N 3.8 0.0 0.0
08:35 17.9 16.9 94 1022.6 2.2 NW 3.8 0.0 0.0
08:36 17.9 16.9 94 1022.6 2.2 NE 3.8 0.0 0.0
08:37 17.9 16.9 94 1022.6 2.2 N 3.8 0.0 0.0
08:38 17.9 16.9 94 1022.6 2.2 NW 3.8 0.0 0.0
08:39 17.9 16.9 94 1022.5 3.1 N 3.8 0.0 0.0
08:40 17.9 16.9 94 1022.5 1.6 NW 3.8 0.0 0.0
08:41 17.9 16.8 93 1022.4 1.6 NE 3.8 0.0 0.0
08:43 17.9 16.8 93 1022.5 1.6 NW 3.1 0.0 0.0
08:44 17.9 16.8 93 1022.5 2.2 NW 3.1 0.0 0.0
08:45 18.0 16.9 93 1022.6 3.8 NW 3.8 0.0 0.0
08:46 18.0 16.9 93 1022.6 2.2 W 3.8 0.0 0.0
08:47 18.0 16.9 93 1022.5 2.2 N 3.8 0.0 0.0
08:48 18.0 16.9 93 1022.5 2.2 N 3.8 0.0 0.0
08:49 18.0 16.9 93 1022.6 3.1 W 3.8 0.0 0.0
08:50 18.0 16.9 93 1022.6 2.2 NW 3.8 0.0 0.0
08:51 18.0 16.9 93 1022.4 2.2 NW 3.8 0.0 0.0
08:52 18.0 16.9 93 1022.7 3.1 N 3.8 0.0 0.0
08:53 18.0 16.9 93 1022.5 3.1 NW 3.8 0.0 0.0
08:54 18.0 16.9 93 1022.6 2.2 N 3.8 0.0 0.0
08:55 18.1 17.0 93 1022.6 2.2 NE 3.8 0.0 0.0
08:56 17.9 16.8 93 1022.4 4.5 N 4.5 0.0 0.0
08:58 18.1 17.0 93 1022.6 3.8 N 4.5 0.0 0.0
08:59 18.1 17.0 93 1022.4 3.1 N 4.5 0.0 0.0
09:00 18.1 17.0 93 1022.5 3.8 N 4.5 0.0 0.0
09:01 18.1 17.0 93 1022.6 3.8 N 4.5 0.0 0.0
09:02 18.1 17.0 93 1022.5 5.4 NW 5.4 0.0 0.0
09:03 18.1 17.0 93 1022.6 5.4 N 5.4 0.0 0.0
09:04 18.1 17.0 93 1022.5 2.2 SE 5.4 0.0 0.0
09:05 18.1 17.0 93 1022.6 4.5 N 5.4 0.0 0.0
09:06 18.1 17.0 93 1022.5 6.0 N 6.0 0.0 0.0
09:07 18.1 17.0 93 1022.5 5.4 NW 6.0 0.0 0.0
09:08 18.1 17.0 93 1022.6 4.5 N 6.0 0.0 0.0
09:09 18.1 17.0 93 1022.4 4.5 NE 6.0 0.0 0.0
09:10 18.1 17.0 93 1022.6 3.1 NE 6.0 0.0 0.0
09:11 18.1 17.0 93 1022.4 5.4 NE 6.0 0.0 0.0
09:12 18.1 17.0 93 1022.6 3.8 N 6.0 0.0 0.0
09:14 18.2 17.1 93 1022.6 2.2 N 6.0 0.0 0.0
09:15 18.2 17.1 93 1022.5 3.8 NE 6.0 0.0 0.0
09:16 18.2 17.1 93 1022.6 3.1 N 5.4 0.0 0.0
09:17 18.2 17.1 93 1022.5 3.1 NE 5.4 0.0 0.0
09:18 18.2 17.1 93 1022.6 3.1 N 5.4 0.0 0.0
09:19 18.2 17.1 93 1022.6 3.1 N 5.4 0.0 0.0
09:20 18.2 17.1 93 1022.7 3.8 NNE 5.4 0.0 0.0
09:21 18.2 17.1 93 1022.6 3.1 N 4.5 0.0 0.0
09:22 18.2 17.1 93 1022.7 3.8 N 4.5 0.0 0.0
09:23 18.2 17.1 93 1022.5 3.8 N 4.5 0.0 0.0
09:24 18.2 16.9 92 1022.7 3.8 NW 4.5 0.0 0.0
09:25 18.2 16.9 92 1022.7 3.1 N 4.5 0.0 0.0
09:26 18.2 16.9 92 1022.5 2.2 N 4.5 0.0 0.0
09:28 18.2 16.9 92 1022.6 3.1 NW 4.5 0.0 0.0
09:29 18.2 16.9 92 1022.7 2.2 N 4.5 0.0 0.0
09:30 18.2 16.9 92 1022.7 3.1 NE 4.5 0.0 0.0
09:31 18.2 16.9 92 1022.7 5.4 N 5.4 0.0 0.0
09:32 18.2 16.9 92 1022.7 3.8 N 5.4 0.0 0.0
09:33 18.2 16.9 92 1022.7 3.8 NW 5.4 0.0 0.0
09:34 18.2 16.9 92 1022.7 4.5 NE 5.4 0.0 0.0
09:35 18.2 16.9 92 1022.6 4.5 N 5.4 0.0 0.0
09:36 18.2 16.9 92 1022.7 3.1 NNE 5.4 0.0 0.0
09:37 18.2 16.9 92 1022.6 2.2 NW 5.4 0.0 0.0
09:38 18.2 16.9 92 1022.6 4.5 NW 5.4 0.0 0.0
09:39 18.2 16.9 92 1022.7 2.2 NNE 5.4 0.0 0.0
09:40 18.2 16.9 92 1022.7 2.2 NE 5.4 0.0 0.0
09:42 18.3 17.0 92 1022.8 2.2 N 4.5 0.0 0.0
09:43 18.3 17.0 92 1022.6 2.2 N 4.5 0.0 0.0
09:44 18.3 17.0 92 1022.7 4.5 N 4.5 0.0 0.0
09:45 18.3 17.0 92 1022.6 4.5 NE 4.5 0.0 0.0
09:46 18.3 17.0 92 1022.8 5.4 NW 5.4 0.0 0.0
09:47 18.3 17.0 92 1022.8 4.5 NW 5.4 0.0 0.0
09:48 18.3 17.0 92 1022.8 3.8 NE 5.4 0.0 0.0
09:49 18.3 17.0 92 1022.7 4.5 ENE 5.4 0.0 0.0
09:50 18.4 17.1 92 1022.8 4.5 NE 5.4 0.0 0.0
09:51 18.4 17.1 92 1022.6 5.4 N 5.4 0.0 0.0
09:52 18.4 17.1 92 1022.6 3.8 N 5.4 0.0 0.0
09:53 18.4 17.1 92 1022.6 3.8 NE 5.4 0.0 0.0
09:54 18.4 17.1 92 1022.7 4.5 NE 5.4 0.0 0.0
09:55 18.4 17.1 92 1022.7 4.5 NE 5.4 0.0 0.0
09:57 18.5 17.2 92 1022.8 3.8 ENE 5.4 0.0 0.0
09:58 18.5 17.2 92 1022.7 1.6 N 5.4 0.0 0.0
09:59 18.5 17.2 92 1022.7 2.2 NW 5.4 0.0 0.0
10:00 18.5 17.2 92 1022.7 2.2 NW 5.4 0.0 0.0
10:01 18.5 17.2 92 1022.7 2.2 NW 5.4 0.0 0.0
10:02 18.5 17.2 92 1022.7 3.1 N 4.5 0.0 0.0
10:03 18.5 17.2 92 1022.7 2.2 N 4.5 0.0 0.0
10:04 18.6 17.1 91 1022.7 3.8 NE 4.5 0.0 0.0
10:05 18.6 17.1 91 1022.7 3.8 N 4.5 0.0 0.0
10:06 18.6 17.1 91 1022.7 3.8 NW 4.5 0.0 0.0
10:07 18.6 17.1 91 1022.8 3.8 NE 4.5 0.0 0.0
10:08 18.6 17.1 91 1022.8 4.5 NE 4.5 0.0 0.0
10:09 18.7 17.2 91 1022.8 4.5 NE 4.5 0.0 0.0
10:10 18.7 17.2 91 1022.7 2.2 N 4.5 0.0 0.0
10:11 18.7 17.2 91 1022.8 2.2 NE 4.5 0.0 0.0
10:13 18.7 17.2 91 1022.7 3.1 N 4.5 0.0 0.0
10:14 18.7 17.2 91 1022.7 4.5 NE 4.5 0.0 0.0
10:15 18.7 17.2 91 1022.7 3.8 ENE 4.5 0.0 0.0
10:16 18.7 17.2 91 1022.7 4.5 N 4.5 0.0 0.0
10:17 18.7 17.2 91 1022.7 3.1 NW 4.5 0.0 0.0
10:18 18.8 17.3 91 1022.7 3.1 N 4.5 0.0 0.0
10:19 18.8 17.3 91 1022.8 3.8 NE 4.5 0.0 0.0
10:20 18.8 17.3 91 1022.8 3.8 NE 4.5 0.0 0.0
10:21 18.8 17.1 90 1022.7 3.8 NE 4.5 0.0 0.0
10:22 18.8 17.1 90 1022.7 3.8 NE 4.5 0.0 0.0
10:23 18.9 17.2 90 1022.6 4.5 NW 4.5 0.0 0.0
10:24 18.8 17.1 90 1022.7 3.8 NE 4.5 0.0 0.0
10:25 18.9 17.2 90 1022.7 3.8 NW 4.5 0.0 0.0
10:27 18.9 17.2 90 1022.6 3.1 NE 4.5 0.0 0.0
10:28 18.9 17.2 90 1022.8 3.1 NE 4.5 0.0 0.0
10:29 19.0 17.3 90 1022.7 1.6 E 4.5 0.0 0.0
10:30 18.9 17.2 90 1022.7 3.8 N 4.5 0.0 0.0
10:31 19.0 17.3 90 1022.8 3.1 NE 4.5 0.0 0.0
10:32 19.0 17.3 90 1022.6 3.8 NE 4.5 0.0 0.0
10:33 19.0 17.2 89 1022.8 3.1 NE 4.5 0.0 0.0
10:34 19.0 17.2 89 1022.7 3.1 NE 3.8 0.0 0.0
10:35 19.0 17.2 89 1022.7 3.1 NW 3.8 0.0 0.0
10:36 19.0 17.2 89 1022.6 2.2 N 3.8 0.0 0.0
10:37 19.0 17.2 89 1022.8 1.6 NE 3.8 0.0 0.0
10:38 19.1 17.3 89 1022.6 2.2 NE 3.8 0.0 0.0
10:39 19.1 17.3 89 1022.5 3.8 N 3.8 0.0 0.0
10:40 19.1 17.3 89 1022.8 3.1 N 3.8 0.0 0.0
10:42 19.2 17.4 89 1022.8 3.1 NW 3.8 0.0 0.0
10:43 19.2 17.4 89 1022.7 2.2 NW 3.8 0.0 0.0
10:44 19.2 17.4 89 1022.7 3.1 N 3.8 0.0 0.0
10:45 19.2 17.4 89 1022.6 2.2 E 3.8 0.0 0.0
10:46 19.2 17.4 89 1022.6 2.2 E 3.8 0.0 0.0
10:47 19.3 17.5 89 1022.8 1.6 N 3.8 0.0 0.0
10:48 19.3 17.5 89 1022.6 2.2 N 3.8 0.0 0.0
10:49 19.3 17.5 89 1022.8 1.6 NW 3.8 0.0 0.0
10:50 19.3 17.5 89 1022.7 2.2 N 3.1 0.0 0.0
10:51 19.3 17.5 89 1022.7 2.2 NE 3.1 0.0 0.0
10:52 19.3 17.3 88 1022.8 2.2 NE 3.1 0.0 0.0
10:53 19.4 17.4 88 1022.7 4.5 SE 4.5 0.0 0.0
10:54 19.4 17.4 88 1022.8 3.1 NE 4.5 0.0 0.0
10:56 19.4 17.4 88 1022.7 2.2 NE 4.5 0.0 0.0
10:57 19.4 17.4 88 1022.8 2.2 N 4.5 0.0 0.0
10:58 19.4 17.4 88 1022.7 2.2 NE 4.5 0.0 0.0
10:59 19.4 17.4 88 1022.8 1.6 N 4.5 0.0 0.0
11:00 19.4 17.4 88 1022.6 1.6 NW 4.5 0.0 0.0
11:01 19.4 17.4 88 1022.7 1.6 NW 4.5 0.0 0.0
11:02 19.4 17.2 87 1022.7 3.1 N 4.5 0.0 0.0
11:03 19.4 17.2 87 1022.6 2.2 NW 4.5 0.0 0.0
11:04 19.4 17.2 87 1022.8 1.6 NE 3.1 0.0 0.0
11:05 19.4 17.2 87 1022.7 1.6 N 3.1 0.0 0.0
11:06 19.5 17.3 87 1022.7 0.7 N 3.1 0.0 0.0
11:07 19.5 17.3 87 1022.6 0.7 NW 3.1 0.0 0.0
11:08 19.5 17.3 87 1022.6 0.7 N 3.1 0.0 0.0
11:09 19.4 17.2 87 1022.7 2.2 NE 3.1 0.0 0.0
11:10 19.4 17.2 87 1022.6 2.2 NE 3.1 0.0 0.0
11:13 19.5 17.1 86 1022.6 0.0 NW 2.2 0.0 0.0
11:14 19.5 17.1 86 1022.6 0.7 NW 2.2 0.0 0.0
11:15 19.5 17.1 86 1022.7 0.7 N 2.2 0.0 0.0
11:16 19.5 17.1 86 1022.6 0.7 NW 2.2 0.0 0.0
11:17 19.5 17.1 86 1022.6 0.7 NW 2.2 0.0 0.0
11:18 19.5 17.1 86 1022.5 0.0 NW 2.2 0.0 0.0
11:19 19.5 17.1 86 1022.6 0.7 SE 2.2 0.0 0.0
11:20 19.5 17.1 86 1022.5 0.7 SE 2.2 0.0 0.0
11:21 19.5 17.1 86 1022.6 0.7 SW 1.6 0.0 0.0
11:22 19.5 17.1 86 1022.5 0.0 NW 1.6 0.0 0.0
11:23 19.5 17.1 86 1022.7 1.6 W 1.6 0.0 0.0
11:24 19.5 17.1 86 1022.6 1.6 W 1.6 0.0 0.0
11:25 19.5 16.9 85 1022.4 0.0 W 1.6 0.0 0.0
11:26 19.5 16.9 85 1022.3 1.6 SW 1.6 0.0 0.0
11:28 19.5 16.9 85 1022.4 2.2 SW 2.2 0.0 0.0
11:29 19.5 16.9 85 1022.4 2.2 S 2.2 0.0 0.0
11:30 19.5 16.9 85 1022.7 1.6 W 2.2 0.0 0.0
11:31 19.5 16.9 85 1022.4 0.7 W 2.2 0.0 0.0
11:32 19.5 16.9 85 1022.5 1.6 SW 2.2 0.0 0.0
11:33 19.5 16.9 85 1022.5 1.6 SW 2.2 0.0 0.0
11:34 19.5 16.9 85 1022.5 1.6 W 2.2 0.0 0.0
11:35 19.5 16.9 85 1022.3 1.6 SW 2.2 0.0 0.0
11:36 19.6 17.0 85 1022.3 0.0 W 2.2 0.0 0.0
11:37 19.6 17.0 85 1022.3 1.6 W 2.2 0.0 0.0
11:38 19.6 17.0 85 1022.3 2.2 NW 2.2 0.0 0.0
11:39 19.6 17.0 85 1022.3 2.2 NW 2.2 0.0 0.0
11:40 19.6 17.0 85 1022.3 1.6 NW 2.2 0.0 0.0
11:41 19.6 17.0 85 1022.3 2.2 NW 2.2 0.0 0.0
11:42 19.6 17.0 85 1022.4 2.2 W 2.2 0.0 0.0
11:43 19.7 17.1 85 1022.4 1.6 NW 2.2 0.0 0.0
11:45 19.7 17.1 85 1022.4 1.6 SW 2.2 0.0 0.0
11:46 19.7 17.1 85 1022.3 2.2 S 2.2 0.0 0.0
11:47 19.7 17.1 85 1022.4 1.6 S 2.2 0.0 0.0
11:48 19.8 17.2 85 1022.3 1.6 SW 2.2 0.0 0.0
11:49 19.8 17.2 85 1022.3 1.6 SW 2.2 0.0 0.0
11:50 19.8 17.2 85 1022.3 1.6 NW 2.2 0.0 0.0
11:51 19.8 17.2 85 1022.4 0.7 S 2.2 0.0 0.0
11:52 19.8 17.2 85 1022.4 1.6 N 2.2 0.0 0.0
11:53 19.8 17.2 85 1022.2 1.6 N 2.2 0.0 0.0
11:54 19.9 17.3 85 1022.3 0.7 N 2.2 0.0 0.0
11:55 19.9 17.3 85 1022.2 3.1 NW 3.1 0.0 0.0
11:56 19.9 17.1 84 1022.4 1.6 N 3.1 0.0 0.0
11:57 20.0 17.2 84 1022.3 1.6 WSW 3.1 0.0 0.0
11:58 20.0 17.2 84 1022.4 1.6 NE 3.1 0.0 0.0
11:59 20.0 17.2 84 1022.3 1.6 NW 3.1 0.0 0.0
12:01 20.1 17.3 84 1022.2 2.2 NE 3.1 0.0 0.0
12:02 20.1 17.3 84 1022.3 2.2 NW 3.1 0.0 0.0
12:03 20.1 17.3 84 1022.3 3.1 W 3.1 0.0 0.0
12:04 20.2 17.2 83 1022.3 2.2 NW 3.1 0.0 0.0
12:05 20.2 17.2 83 1022.3 2.2 NW 3.1 0.0 0.0
12:06 20.2 17.2 83 1022.3 2.2 NW 3.1 0.0 0.0
12:07 20.2 17.2 83 1022.3 2.2 NW 3.1 0.0 0.0
12:08 20.3 17.3 83 1022.4 2.2 N 3.1 0.0 0.0
12:09 20.3 17.3 83 1022.3 1.6 NE 3.1 0.0 0.0
12:10 20.3 17.3 83 1022.3 1.6 N 3.1 0.0 0.0
12:11 20.3 17.1 82 1022.4 1.6 NW 3.1 0.0 0.0
12:12 20.4 17.2 82 1022.2 1.6 N 3.1 0.0 0.0
12:13 20.4 17.2 82 1022.5 2.2 NE 2.2 0.0 0.0
12:14 20.4 17.2 82 1022.3 2.2 NE 2.2 0.0 0.0
12:16 20.5 17.1 81 1022.4 1.6 N 2.2 0.0 0.0
12:17 20.5 17.1 81 1022.3 0.0 N 2.2 0.0 0.0
12:18 20.5 16.9 80 1022.4 0.7 N 2.2 0.0 0.0
12:19 20.6 17.0 80 1022.5 0.7 W 2.2 0.0 0.0
12:20 20.6 17.0 80 1022.3 0.7 NE 2.2 0.0 0.0
12:21 20.6 17.0 80 1022.3 0.7 NE 2.2 0.0 0.0
12:22 20.6 16.8 79 1022.3 0.7 N 2.2 0.0 0.0
12:23 20.6 16.8 79 1022.3 1.6 NW 2.2 0.0 0.0
12:24 20.6 16.8 79 1022.4 0.7 W 2.2 0.0 0.0
12:25 20.6 16.8 79 1022.4 0.7 NNE 2.2 0.0 0.0
12:26 20.7 16.9 79 1022.4 1.6 N 1.6 0.0 0.0
12:27 20.7 16.7 78 1022.3 3.8 NE 3.8 0.0 0.0
12:28 20.7 16.9 79 1022.4 3.1 N 3.8 0.0 0.0
12:29 20.7 16.9 79 1022.4 3.1 NE 3.8 0.0 0.0
12:30 20.8 17.0 79 1022.3 2.2 SW 4.5 0.0 0.0
12:31 20.8 17.0 79 1022.4 4.5 NW 4.5 0.0 0.0
12:33 20.9 17.1 79 1022.3 5.4 N 5.4 0.0 0.0
12:34 20.9 17.1 79 1022.3 4.5 NNE 5.4 0.0 0.0
12:35 20.9 17.1 79 1022.5 3.1 S 5.4 0.0 0.0
12:36 20.9 17.1 79 1022.5 3.8 NW 5.4 0.0 0.0
12:37 20.9 17.1 79 1022.5 3.8 NW 5.4 0.0 0.0
12:38 20.9 17.1 79 1022.5 2.2 NW 5.4 0.0 0.0
12:39 21.0 17.2 79 1022.5 2.2 S 5.4 0.0 0.0
12:40 20.9 17.1 79 1022.4 2.2 N 5.4 0.0 0.0
12:41 21.0 17.2 79 1022.4 4.5 N 5.4 0.0 0.0
12:42 21.0 17.2 79 1022.4 3.1 N 5.4 0.0 0.0
12:43 21.0 17.2 79 1022.4 4.5 NE 5.4 0.0 0.0
12:44 21.0 17.2 79 1022.3 1.6 SE 4.5 0.0 0.0
12:45 21.0 17.2 79 1022.4 1.6 SW 4.5 0.0 0.0
12:46 21.0 17.2 79 1022.5 1.6 N 4.5 0.0 0.0
12:47 21.0 17.2 79 1022.5 3.8 S 4.5 0.0 0.0
12:48 21.0 17.2 79 1022.4 3.1 N 4.5 0.0 0.0
12:50 21.0 17.2 79 1022.4 2.2 SE 4.5 0.0 0.0
12:51 21.0 17.2 79 1022.6 2.2 NNE 4.5 0.0 0.0
12:52 21.0 17.2 79 1022.4 1.6 SE 4.5 0.0 0.0
12:53 21.0 17.2 79 1022.5 1.6 N 4.5 0.0 0.0
12:54 21.0 17.2 79 1022.5 3.1 N 3.8 0.0 0.0
12:55 21.0 17.2 79 1022.5 3.1 N 3.8 0.0 0.0
12:56 21.0 17.2 79 1022.5 2.2 NW 3.8 0.0 0.0
12:57 21.0 17.2 79 1022.6 2.2 N 3.8 0.0 0.0
12:58 21.0 17.2 79 1022.4 3.8 N 3.8 0.0 0.0
12:59 21.0 17.2 79 1022.4 3.8 SE 3.8 0.0 0.0
13:00 21.0 17.2 79 1022.3 2.2 NE 3.8 0.0 0.0
13:01 21.0 17.2 79 1022.4 3.1 NNE 3.8 0.0 0.0
13:02 21.0 17.2 79 1022.5 3.8 N 3.8 0.0 0.0
13:03 21.0 17.2 79 1022.5 2.2 NW 3.8 0.0 0.0
13:04 21.0 17.2 79 1022.4 2.2 E 3.8 0.0 0.0
13:05 21.0 17.2 79 1022.5 3.1 NE 3.8 0.0 0.0
13:07 21.1 17.3 79 1022.4 3.8 N 3.8 0.0 0.0
13:08 21.1 17.3 79 1022.5 4.5 N 4.5 0.0 0.0
13:09 21.1 17.3 79 1022.4 3.1 NE 4.5 0.0 0.0
13:10 21.1 17.1 78 1022.4 2.2 SE 4.5 0.0 0.0
13:11 21.1 17.1 78 1022.4 3.1 NW 4.5 0.0 0.0
13:12 21.1 17.1 78 1022.4 2.2 N 4.5 0.0 0.0
13:13 21.1 17.1 78 1022.5 2.2 NW 4.5 0.0 0.0
13:14 21.1 17.1 78 1022.4 3.1 N 4.5 0.0 0.0
13:15 21.1 17.1 78 1022.4 1.6 N 4.5 0.0 0.0
13:16 21.1 17.1 78 1022.5 3.8 NW 4.5 0.0 0.0
13:17 21.1 17.1 78 1022.2 3.1 NE 4.5 0.0 0.0
13:18 21.1 17.1 78 1022.3 1.6 NE 4.5 0.0 0.0
13:19 21.2 17.2 78 1022.4 3.1 N 3.8 0.0 0.0
13:20 21.2 17.2 78 1022.4 2.2 ENE 3.8 0.0 0.0
13:21 21.2 17.2 78 1022.3 3.1 N 3.8 0.0 0.0
13:23 21.2 17.2 78 1022.4 3.8 N 3.8 0.0 0.0
13:24 21.2 17.2 78 1022.4 3.8 N 3.8 0.0 0.0
13:25 21.2 17.0 77 1022.4 3.1 NW 3.8 0.0 0.0
13:26 21.4 17.2 77 1022.4 3.1 SW 3.8 0.0 0.0
13:27 21.3 17.1 77 1022.3 3.1 E 3.8 0.0 0.0
13:28 21.3 17.1 77 1022.4 3.1 S 3.8 0.0 0.0
13:29 21.3 17.1 77 1022.4 3.1 N 3.8 0.0 0.0
13:30 21.3 17.1 77 1022.5 1.6 N 3.8 0.0 0.0
13:31 21.3 17.1 77 1022.4 4.5 SE 4.5 0.0 0.0
13:32 21.3 17.1 77 1022.3 3.1 SW 4.5 0.0 0.0
13:33 21.3 17.1 77 1022.4 3.1 N 4.5 0.0 0.0
13:34 21.3 16.9 76 1022.6 3.8 N 4.5 0.0 0.0
13:35 21.3 17.1 77 1022.4 3.1 N 4.5 0.0 0.0
13:36 21.3 16.9 76 1022.4 3.1 NNE 4.5 0.0 0.0
13:37 21.3 16.9 76 1022.4 3.8 S 4.5 0.0 0.0
13:38 21.3 16.9 76 1022.3 2.2 NW 4.5 0.0 0.0
13:40 21.3 16.9 76 1022.3 0.0 NW 4.5 0.0 0.0
13:41 21.3 16.9 76 1022.3 3.1 N 4.5 0.0 0.0
13:42 21.4 17.0 76 1022.4 1.6 N 3.8 0.0 0.0
13:43 21.4 17.0 76 1022.2 1.6 N 3.8 0.0 0.0
13:44 21.4 17.0 76 1022.3 1.6 NW 3.8 0.0 0.0
13:45 21.4 17.0 76 1022.5 1.6 NW 3.8 0.0 0.0
13:46 21.4 17.0 76 1022.5 0.7 SW 3.8 0.0 0.0
13:47 21.4 17.0 76 1022.4 0.7 SW 3.8 0.0 0.0
13:48 21.4 17.0 76 1022.5 2.2 S 3.1 0.0 0.0
13:49 21.4 17.0 76 1022.4 1.6 S 3.1 0.0 0.0
13:50 21.4 16.8 75 1022.4 2.2 W 3.1 0.0 0.0
13:51 21.4 16.8 75 1022.4 1.6 SW 3.1 0.0 0.0
13:52 21.4 16.8 75 1022.4 2.2 SE 2.2 0.0 0.0
13:53 21.4 16.8 75 1022.5 3.1 S 3.1 0.0 0.0
13:54 21.4 16.8 75 1022.6 3.8 SE 3.8 0.0 0.0
13:56 21.4 16.8 75 1022.4 3.1 SE 3.8 0.0 0.0
13:57 21.3 16.7 75 1022.5 2.2 SW 3.8 0.0 0.0
13:58 21.3 16.7 75 1022.5 2.2 S 3.8 0.0 0.0
13:59 21.3 16.7 75 1022.5 1.6 S 3.8 0.0 0.0
14:00 21.3 16.7 75 1022.5 1.6 S 3.8 0.0 0.0
14:01 21.2 16.6 75 1022.4 1.6 NW 3.8 0.0 0.0
14:02 21.2 16.6 75 1022.4 2.2 S 3.8 0.0 0.0
14:03 21.2 16.6 75 1022.4 3.1 S 3.8 0.0 0.0
14:04 21.2 16.6 75 1022.5 0.7 NW 3.8 0.0 0.0
14:05 21.2 16.6 75 1022.4 0.7 NW 3.8 0.0 0.0
14:06 21.2 16.6 75 1022.3 0.7 SW 3.8 0.0 0.0
14:07 21.2 16.6 75 1022.5 1.6 N 3.8 0.0 0.0
14:08 21.2 16.6 75 1022.4 1.6 N 3.8 0.0 0.0
14:09 21.2 16.6 75 1022.4 3.1 S 3.8 0.0 0.0
14:10 21.2 16.6 75 1022.4 0.7 SE 3.8 0.0 0.0
14:11 21.2 16.6 75 1022.4 2.2 W 3.8 0.0 0.0
14:13 21.2 16.6 75 1022.3 3.1 S 3.1 0.0 0.0
14:14 21.2 16.6 75 1022.4 2.2 S 3.1 0.0 0.0
14:15 21.2 16.6 75 1022.2 3.8 S 3.8 0.0 0.0
14:16 21.2 16.6 75 1022.5 3.8 S 3.8 0.0 0.0
14:17 21.2 16.6 75 1022.5 2.2 S 3.8 0.0 0.0
14:18 21.2 16.6 75 1022.4 2.2 SE 3.8 0.0 0.0
14:19 21.2 16.6 75 1022.3 3.1 S 3.8 0.0 0.0
14:20 21.2 16.6 75 1022.3 2.2 SE 3.8 0.0 0.0
14:21 21.3 16.7 75 1022.4 1.6 SE 3.8 0.0 0.0
14:22 21.3 16.7 75 1022.4 3.1 SE 3.8 0.0 0.0
14:23 21.3 16.7 75 1022.4 4.5 SE 4.5 0.0 0.0
14:24 21.3 16.7 75 1022.3 3.1 S 4.5 0.0 0.0
14:25 21.3 16.7 75 1022.5 3.1 S 4.5 0.0 0.0
14:26 21.3 16.7 75 1022.3 2.2 NW 4.5 0.0 0.0
14:27 21.3 16.7 75 1022.3 3.8 SW 4.5 0.0 0.0
14:28 21.3 16.7 75 1022.1 3.1 SE 4.5 0.0 0.0
14:30 21.3 16.7 75 1022.3 3.8 S 4.5 0.0 0.0
14:31 21.3 16.7 75 1022.1 3.1 SW 4.5 0.0 0.0
14:32 21.3 16.5 74 1022.1 4.5 W 5.4 0.0 0.0
14:33 21.3 16.5 74 1022.2 4.5 SE 5.4 0.0 0.0
14:34 21.3 16.5 74 1022.2 4.5 SE 5.4 0.0 0.0
14:35 21.3 16.5 74 1022.3 3.8 S 5.4 0.0 0.0
14:36 21.2 16.4 74 1022.3 3.8 S 5.4 0.0 0.0
14:37 21.3 16.5 74 1022.2 5.4 SW 5.4 0.0 0.0
14:38 21.2 16.4 74 1022.4 4.5 S 5.4 0.0 0.0
14:39 21.2 16.4 74 1022.2 3.1 SW 5.4 0.0 0.0
14:40 21.2 16.4 74 1022.2 3.1 SE 5.4 0.0 0.0
14:41 21.2 16.4 74 1022.2 4.5 SW 5.4 0.0 0.0
14:42 21.2 16.4 74 1022.3 4.5 W 5.4 0.0 0.0
14:43 21.3 16.7 75 1022.3 4.5 SE 5.4 0.0 0.0
14:44 21.3 16.7 75 1022.3 3.8 SSW 5.4 0.0 0.0
14:45 21.3 16.7 75 1022.2 3.8 SW 5.4 0.0 0.0
14:47 21.3 16.7 75 1022.2 4.5 S 4.5 0.0 0.0
14:48 21.3 16.7 75 1022.3 3.8 S 4.5 0.0 0.0
14:49 21.3 16.7 75 1022.3 6.0 S 6.0 0.0 0.0
14:50 21.3 16.7 75 1022.3 5.4 SSE 6.0 0.0 0.0
14:51 21.3 16.7 75 1022.3 5.4 SSE 6.0 0.0 0.0
14:52 21.4 16.8 75 1022.3 3.8 SE 6.0 0.0 0.0
14:53 21.4 16.8 75 1022.2 2.2 E 6.0 0.0 0.0
14:54 21.4 16.8 75 1022.2 3.1 SE 6.0 0.0 0.0
14:55 21.4 16.8 75 1022.3 4.5 S 6.0 0.0 0.0
14:56 21.4 16.8 75 1022.2 3.8 S 6.0 0.0 0.0
14:57 21.4 16.8 75 1022.3 5.4 S 6.0 0.0 0.0
14:58 21.4 16.8 75 1022.2 3.8 S 6.0 0.0 0.0
14:59 21.4 16.8 75 1022.2 3.1 S 6.0 0.0 0.0
15:00 21.5 16.9 75 1022.2 2.2 SE 5.4 0.0 0.0
15:01 21.4 16.8 75 1022.3 3.8 SW 5.4 0.0 0.0
15:02 21.4 16.6 74 1022.2 2.2 W 5.4 0.0 0.0
15:03 21.4 16.6 74 1022.2 2.2 S 5.4 0.0 0.0
15:04 21.5 16.9 75 1022.2 4.5 SW 5.4 0.0 0.0
15:06 21.5 16.7 74 1022.2 3.1 W 5.4 0.0 0.0
15:07 21.5 16.7 74 1022.2 3.1 N 4.5 0.0 0.0
15:08 21.5 16.7 74 1022.1 3.1 W 4.5 0.0 0.0
15:09 21.5 16.7 74 1022.1 3.1 W 4.5 0.0 0.0
15:10 21.5 16.7 74 1022.1 1.6 NW 4.5 0.0 0.0
15:11 21.6 16.8 74 1022.1 1.6 W 4.5 0.0 0.0
15:12 21.6 16.8 74 1022.2 3.1 S 4.5 0.0 0.0
15:13 21.6 16.8 74 1022.0 3.1 S 4.5 0.0 0.0
15:14 21.6 16.8 74 1022.2 3.1 E 4.5 0.0 0.0
15:15 21.6 16.8 74 1022.1 2.2 SW 4.5 0.0 0.0
15:16 21.6 16.8 74 1022.3 3.1 W 3.1 0.0 0.0
15:17 21.6 16.8 74 1022.3 3.1 SW 3.1 0.0 0.0
15:18 21.6 17.0 75 1022.1 5.4 SW 5.4 0.0 0.0
15:19 21.6 16.8 74 1022.2 5.4 SW 5.4 0.0 0.0
15:20 21.6 16.8 74 1022.1 3.8 SW 5.4 0.0 0.0
15:22 21.6 16.8 74 1022.0 3.8 SE 5.4 0.0 0.0
15:23 21.6 16.8 74 1022.1 2.2 SSW 5.4 0.0 0.0
15:24 21.6 16.8 74 1022.1 3.8 S 5.4 0.0 0.0
15:25 21.6 16.8 74 1022.1 3.8 S 5.4 0.0 0.0
15:26 21.6 16.8 74 1022.0 3.8 S 5.4 0.0 0.0
15:27 21.6 16.8 74 1022.0 4.5 WSW 5.4 0.0 0.0
15:28 21.6 16.8 74 1022.2 3.8 SW 5.4 0.0 0.0
15:29 21.6 16.8 74 1022.1 3.1 SE 5.4 0.0 0.0
15:30 21.6 16.8 74 1022.0 2.2 S 4.5 0.0 0.0
15:31 21.6 16.8 74 1022.0 2.2 S 4.5 0.0 0.0
15:32 21.6 16.8 74 1022.2 2.2 S 4.5 0.0 0.0
15:33 21.6 17.0 75 1022.0 3.1 SW 4.5 0.0 0.0
15:34 21.6 17.0 75 1022.0 5.4 SW 5.4 0.0 0.0
15:35 21.6 17.0 75 1021.9 4.5 S 5.4 0.0 0.0
15:36 21.6 17.0 75 1022.0 4.5 SE 5.4 0.0 0.0
15:37 21.6 17.0 75 1022.1 4.5 SW 5.4 0.0 0.0
15:38 21.5 16.9 75 1021.9 4.5 S 5.4 0.0 0.0
15:40 21.5 16.9 75 1021.9 6.0 S 6.0 0.0 0.0
15:41 21.5 16.9 75 1021.9 6.9 SW 6.9 0.0 0.0
15:42 21.5 16.9 75 1022.0 5.4 SW 6.9 0.0 0.0
15:43 21.5 16.9 75 1022.0 5.4 SW 6.9 0.0 0.0
15:44 21.4 16.8 75 1022.0 4.5 SW 6.9 0.0 0.0
15:45 21.4 16.8 75 1022.1 3.8 S 6.9 0.0 0.0
15:46 21.4 17.0 76 1021.9 2.2 SW 6.9 0.0 0.0
15:47 21.4 17.0 76 1022.0 4.5 SW 6.9 0.0 0.0
15:48 21.3 16.9 76 1022.1 4.5 S 6.9 0.0 0.0
15:49 21.3 16.7 75 1022.0 6.0 S 6.9 0.0 0.0
15:50 21.3 16.7 75 1022.0 5.4 S 6.9 0.0 0.0
15:51 21.2 16.8 76 1022.0 3.8 SW 6.9 0.0 0.0
15:52 21.2 16.8 76 1022.1 3.8 SW 6.0 0.0 0.0
15:53 21.2 16.8 76 1022.0 3.1 SW 6.0 0.0 0.0
15:54 21.2 16.8 76 1022.0 3.1 W 6.0 0.0 0.0
15:55 21.2 16.8 76 1022.0 2.2 E 6.0 0.0 0.0
15:57 21.1 16.7 76 1022.0 1.6 SE 6.0 0.0 0.0
15:58 21.1 16.7 76 1021.9 1.6 SE 6.0 0.0 0.0
15:59 21.1 16.7 76 1021.8 2.2 SE 5.4 0.0 0.0
16:00 21.1 16.7 76 1021.9 2.2 S 5.4 0.0 0.0
16:01 21.1 16.7 76 1021.8 2.2 S 3.8 0.0 0.0
16:02 21.1 16.7 76 1021.8 3.8 E 3.8 0.0 0.0
16:03 21.1 16.7 76 1021.8 3.8 S 4.5 0.0 0.0
16:04 21.1 16.7 76 1021.8 4.5 S 4.5 0.0 0.0
16:05 21.0 16.6 76 1021.8 3.1 SW 4.5 0.0 0.0
16:06 21.0 16.6 76 1021.8 4.5 SW 4.5 0.0 0.0
16:07 21.0 16.6 76 1021.9 3.1 SE 4.5 0.0 0.0
16:08 21.0 16.6 76 1021.8 3.8 S 4.5 0.0 0.0
16:09 20.9 16.5 76 1021.8 3.8 SW 4.5 0.0 0.0
16:10 20.9 16.5 76 1021.8 3.8 S 4.5 0.0 0.0
16:11 20.9 16.5 76 1021.8 4.5 SW 4.5 0.0 0.0
16:13 20.8 16.4 76 1021.8 3.8 S 4.5 0.0 0.0
16:14 20.8 16.4 76 1021.8 3.1 S 4.5 0.0 0.0
16:15 20.8 16.6 77 1021.8 3.1 S 4.5 0.0 0.0
16:16 20.7 16.5 77 1021.8 3.1 S 4.5 0.0 0.0
16:17 20.7 16.5 77 1021.8 4.5 S 4.5 0.0 0.0
16:18 20.7 16.5 77 1021.9 4.5 S 4.5 0.0 0.0
16:19 20.7 16.5 77 1021.9 5.4 S 5.4 0.0 0.0
16:20 20.6 16.4 77 1021.9 3.8 E 5.4 0.0 0.0
16:21 20.6 16.4 77 1021.9 3.8 S 5.4 0.0 0.0
16:22 20.6 16.4 77 1021.9 6.0 S 6.0 0.0 0.0
16:23 20.5 16.3 77 1021.8 5.4 SE 6.0 0.0 0.0
16:24 20.5 16.3 77 1021.9 4.5 SE 6.0 0.0 0.0
16:25 20.4 16.2 77 1022.0 6.0 SE 6.0 0.0 0.0
16:26 20.4 16.2 77 1022.0 5.4 S 6.0 0.0 0.0
16:27 20.3 16.1 77 1021.8 4.5 SW 6.0 0.0 0.0
16:29 20.3 16.1 77 1022.0 3.1 W 6.0 0.0 0.0
16:30 20.2 16.1 77 1021.9 5.4 S 6.0 0.0 0.0
16:31 20.2 16.1 77 1022.0 3.1 SW 6.0 0.0 0.0
16:32 20.2 16.1 77 1022.1 3.8 SW 6.0 0.0 0.0
16:33 20.2 16.1 77 1022.1 3.8 S 6.0 0.0 0.0
16:34 20.1 16.2 78 1021.9 3.1 E 6.0 0.0 0.0
16:35 20.1 16.2 78 1021.9 1.6 SW 6.0 0.0 0.0
16:36 20.1 16.2 78 1022.0 3.1 SW 6.0 0.0 0.0
16:37 20.1 16.2 78 1022.0 1.6 SW 6.0 0.0 0.0
16:38 20.0 16.1 78 1022.0 1.6 SW 6.0 0.0 0.0
16:39 20.0 16.1 78 1022.0 3.1 WSW 5.4 0.0 0.0
16:40 20.0 16.1 78 1021.9 2.2 SW 5.4 0.0 0.0
16:41 20.0 16.1 78 1021.9 3.1 SW 3.8 0.0 0.0
16:42 20.0 16.1 78 1022.0 3.1 S 3.8 0.0 0.0
16:43 20.0 16.1 78 1022.0 3.8 SE 3.8 0.0 0.0
16:44 20.0 16.3 79 1022.1 4.5 W 4.5 0.0 0.0
16:46 19.9 16.2 79 1021.9 3.8 SSW 4.5 0.0 0.0
16:47 19.9 16.2 79 1021.9 3.8 SW 4.5 0.0 0.0
16:48 19.9 16.2 79 1021.9 3.8 NNE 4.5 0.0 0.0
16:49 19.9 16.2 79 1021.8 4.5 SW 4.5 0.0 0.0
16:50 19.8 16.1 79 1021.9 4.5 S 4.5 0.0 0.0
16:51 19.8 16.1 79 1021.8 4.5 S 4.5 0.0 0.0
16:52 19.8 16.1 79 1021.8 3.8 S 4.5 0.0 0.0
16:53 19.8 16.1 79 1022.0 3.8 NNE 4.5 0.0 0.0
16:54 19.8 16.1 79 1021.9 3.8 SE 4.5 0.0 0.0
16:55 19.7 16.0 79 1021.8 5.4 SW 5.4 0.0 0.0
16:56 19.7 16.2 80 1021.9 5.4 SW 5.4 0.0 0.0
16:57 19.7 16.2 80 1021.9 5.4 S 5.4 0.0 0.0
16:58 19.7 16.2 80 1022.0 4.5 S 5.4 0.0 0.0
16:59 19.6 16.1 80 1021.9 3.8 S 5.4 0.0 0.0
17:00 19.6 16.1 80 1021.7 5.4 S 5.4 0.0 0.0
17:01 19.6 16.1 80 1021.8 3.1 S 5.4 0.0 0.0
17:02 19.6 16.1 80 1021.9 3.8 S 5.4 0.0 0.0
17:03 19.6 16.1 80 1021.8 3.1 S 5.4 0.0 0.0
17:05 19.5 16.0 80 1021.7 4.5 S 5.4 0.0 0.0
17:06 19.5 16.0 80 1021.8 6.0 SW 6.0 0.0 0.0
17:07 19.5 16.2 81 1021.8 4.5 SW 6.0 0.0 0.0
17:08 19.5 16.2 81 1021.8 4.5 SW 6.0 0.0 0.0
17:09 19.4 16.1 81 1021.8 5.4 SSE 6.0 0.0 0.0
17:10 19.4 16.1 81 1021.7 3.8 S 6.0 0.0 0.0
17:11 19.4 16.1 81 1021.7 3.8 SW 6.0 0.0 0.0
17:12 19.3 16.0 81 1021.8 4.5 SW 6.0 0.0 0.0
17:13 19.4 16.1 81 1021.8 5.4 NW 6.0 0.0 0.0
17:14 19.3 16.0 81 1021.7 3.8 S 6.0 0.0 0.0
17:15 19.3 16.0 81 1021.7 4.5 SW 6.0 0.0 0.0
17:16 19.3 16.0 81 1021.7 3.8 SW 6.0 0.0 0.0
17:17 19.3 16.0 81 1021.8 4.5 S 5.4 0.0 0.0
17:18 19.2 15.9 81 1021.8 3.1 S 5.4 0.0 0.0
17:19 19.2 16.1 82 1021.8 3.8 S 5.4 0.0 0.0
17:20 19.2 16.1 82 1021.7 3.1 SW 5.4 0.0 0.0
17:21 19.2 16.1 82 1021.9 4.5 SW 5.4 0.0 0.0
17:23 19.2 16.1 82 1021.8 4.5 SW 4.5 0.0 0.0
17:24 19.1 16.0 82 1021.8 4.5 S 4.5 0.0 0.0
17:25 19.1 16.0 82 1021.8 3.8 SW 4.5 0.0 0.0
17:26 19.1 16.0 82 1021.9 4.5 SW 4.5 0.0 0.0
17:27 19.1 16.0 82 1021.9 3.8 S 4.5 0.0 0.0
17:28 19.1 16.0 82 1021.8 3.1 SW 4.5 0.0 0.0
17:29 19.0 15.9 82 1021.8 3.8 S 4.5 0.0 0.0
17:30 19.0 15.9 82 1021.8 4.5 WSW 4.5 0.0 0.0
17:31 19.0 15.9 82 1021.8 3.8 SW 4.5 0.0 0.0
17:32 19.0 15.9 82 1021.7 4.5 SW 4.5 0.0 0.0
17:33 18.9 15.8 82 1021.8 3.8 S 4.5 0.0 0.0
17:34 18.9 15.8 82 1021.8 4.5 SW 4.5 0.0 0.0
17:35 18.9 15.8 82 1021.7 3.8 S 4.5 0.0 0.0
17:36 18.9 16.0 83 1021.7 3.1 SW 4.5 0.0 0.0
17:37 18.9 16.0 83 1021.8 3.1 W 4.5 0.0 0.0
17:38 18.9 16.0 83 1021.7 3.1 SSW 4.5 0.0 0.0
17:39 18.9 16.0 83 1021.7 3.1 SW 4.5 0.0 0.0
17:40 18.8 15.9 83 1021.7 3.1 SW 4.5 0.0 0.0
17:42 18.8 15.9 83 1021.7 3.8 SW 4.5 0.0 0.0
17:43 18.8 15.9 83 1021.5 3.8 SW 4.5 0.0 0.0
17:44 18.8 15.9 83 1021.8 2.2 SW 4.5 0.0 0.0
17:45 18.8 15.9 83 1021.5 3.1 S 3.8 0.0 0.0
17:46 18.8 15.9 83 1021.7 3.8 S 3.8 0.0 0.0
17:47 18.8 15.9 83 1021.5 3.8 SW 3.8 0.0 0.0
17:48 18.8 16.1 84 1021.6 3.1 SW 3.8 0.0 0.0
17:49 18.8 15.9 83 1021.7 3.1 SW 3.8 0.0 0.0
17:50 18.8 16.1 84 1021.6 2.2 S 3.8 0.0 0.0
17:51 18.8 16.1 84 1021.6 2.2 SW 3.8 0.0 0.0
17:52 18.8 16.1 84 1021.5 2.2 SW 3.8 0.0 0.0
17:53 18.8 16.1 84 1021.6 3.1 S 3.8 0.0 0.0
17:54 18.8 16.1 84 1021.6 2.2 S 3.8 0.0 0.0
17:55 18.8 16.1 84 1021.5 3.1 SW 3.8 0.0 0.0
17:56 18.8 16.1 84 1021.5 3.8 SW 3.8 0.0 0.0
17:57 18.8 16.1 84 1021.6 2.2 S 3.8 0.0 0.0
17:58 18.8 16.1 84 1021.5 3.1 SW 3.8 0.0 0.0
17:59 18.8 16.1 84 1021.5 2.2 S 3.8 0.0 0.0
18:01 18.9 16.3 85 1021.6 3.8 S 3.8 0.0 0.0
18:02 18.9 16.3 85 1021.6 3.1 SW 3.8 0.0 0.0
18:03 18.9 16.3 85 1021.5 3.1 SE 3.8 0.0 0.0
18:04 18.9 16.3 85 1021.4 3.1 S 3.8 0.0 0.0
18:05 19.0 16.4 85 1021.3 4.5 SW 4.5 0.0 0.0
18:06 19.0 16.4 85 1021.4 3.1 S 4.5 0.0 0.0
18:07 19.0 16.4 85 1021.5 3.1 SW 4.5 0.0 0.0
18:08 19.0 16.4 85 1021.6 3.1 SW 4.5 0.0 0.0
18:09 19.0 16.4 85 1021.5 3.8 S 4.5 0.0 0.0
18:10 19.1 16.5 85 1021.5 3.1 S 4.5 0.0 0.0
18:11 19.1 16.5 85 1021.5 3.1 S 4.5 0.0 0.0
18:12 19.1 16.5 85 1021.5 3.1 SSE 4.5 0.0 0.0
18:13 19.1 16.5 85 1021.5 2.2 SW 5.4 0.0 0.0
18:14 19.1 16.5 85 1021.5 1.6 N 5.4 0.0 0.0
18:15 19.2 16.6 85 1021.5 1.6 W 5.4 0.0 0.0
18:16 19.2 16.6 85 1021.5 2.2 S 5.4 0.0 0.0
18:17 19.2 16.6 85 1021.4 2.2 S 5.4 0.0 0.0
18:19 19.3 16.7 85 1021.4 1.6 NW 5.4 0.0 0.0
18:20 19.3 16.7 85 1021.4 2.2 SW 5.4 0.0 0.0
18:21 19.3 16.7 85 1021.4 2.2 SW 5.4 0.0 0.0
18:22 19.3 16.7 85 1021.4 3.8 SW 5.4 0.0 0.0
18:23 19.4 16.8 85 1021.4 2.2 W 3.8 0.0 0.0
18:24 19.4 16.8 85 1021.5 0.7 W 3.8 0.0 0.0
18:25 19.4 16.8 85 1021.7 2.2 S 3.8 0.0 0.0
18:26 19.5 16.9 85 1021.4 2.2 W 3.8 0.0 0.0
18:27 19.5 16.7 84 1021.5 1.6 NW 3.8 0.0 0.0
18:28 19.5 16.7 84 1021.5 0.7 W 3.8 0.0 0.0
18:29 19.5 16.7 84 1021.4 2.2 NW 3.8 0.0 0.0
18:30 19.6 16.8 84 1021.6 3.1 SW 3.8 0.0 0.0
18:31 19.6 16.6 83 1021.5 3.1 W 3.8 0.0 0.0
18:32 19.6 16.6 83 1021.7 1.6 SW 3.8 0.0 0.0
18:33 19.6 16.6 83 1021.5 1.6 W 3.1 0.0 0.0
18:34 19.7 16.6 82 1021.6 3.1 W 3.1 0.0 0.0
18:35 19.7 16.6 82 1021.5 3.8 N 3.8 0.0 0.0
18:36 19.7 16.6 82 1021.6 3.8 W 3.8 0.0 0.0
18:37 19.8 16.7 82 1021.5 3.8 W 3.8 0.0 0.0
18:39 19.8 16.5 81 1021.5 3.1 W 3.8 0.0 0.0
18:40 19.9 16.6 81 1021.5 1.6 WNW 3.8 0.0 0.0
18:41 19.9 16.4 80 1021.5 3.8 N 3.8 0.0 0.0
18:42 19.9 16.4 80 1021.5 4.5 W 4.5 0.0 0.0
18:43 20.0 16.5 80 1021.7 2.2 N 4.5 0.0 0.0
18:44 20.0 16.5 80 1021.5 2.2 NW 4.5 0.0 0.0
18:45 20.0 16.3 79 1021.6 2.2 N 4.5 0.0 0.0
18:46 20.0 16.3 79 1021.7 3.8 NW 4.5 0.0 0.0
18:47 20.0 16.3 79 1021.5 3.1 NW 4.5 0.0 0.0
18:48 20.1 16.4 79 1021.5 3.8 NW 4.5 0.0 0.0
18:49 20.1 16.2 78 1021.5 3.8 W 4.5 0.0 0.0
18:50 20.1 16.2 78 1021.4 5.4 NW 5.4 0.0 0.0
18:51 20.1 16.2 78 1021.4 3.1 NW 5.4 0.0 0.0
18:52 20.2 16.1 77 1021.5 3.8 W 5.4 0.0 0.0
18:53 20.2 16.1 77 1021.4 2.2 NW 5.4 0.0 0.0
18:54 20.2 16.1 77 1021.4 3.1 NW 5.4 0.0 0.0
18:55 20.2 16.1 77 1021.4 4.5 NW 5.4 0.0 0.0
18:57 20.3 15.9 76 1021.5 3.8 NW 5.4 0.0 0.0
18:58 20.3 15.9 76 1021.4 6.0 NW 6.0 0.0 0.0
18:59 20.3 15.7 75 1021.4 5.4 NW 6.0 0.0 0.0
19:00 20.3 15.7 75 1021.5 4.5 W 6.0 0.0 0.0
19:01 20.3 15.7 75 1021.4 4.5 W 6.0 0.0 0.0
19:02 20.3 15.7 75 1021.5 3.8 NW 6.0 0.0 0.0
19:03 20.3 15.5 74 1021.3 2.2 NW 6.0 0.0 0.0
19:04 20.3 15.5 74 1021.5 3.8 W 6.0 0.0 0.0
19:05 20.3 15.5 74 1021.5 3.1 NW 6.0 0.0 0.0
19:06 20.3 15.5 74 1021.6 3.8 NW 6.0 0.0 0.0
19:07 20.3 15.5 74 1021.4 3.1 N 6.0 0.0 0.0
19:08 20.3 15.5 74 1021.4 3.8 NW 5.4 0.0 0.0
19:09 20.3 15.5 74 1021.5 4.5 NW 4.5 0.0 0.0
19:10 20.3 15.3 73 1021.5 5.4 NW 5.4 0.0 0.0
19:11 20.3 15.3 73 1021.4 5.4 NW 5.4 0.0 0.0
19:12 20.3 15.3 73 1021.5 3.8 NW 5.4 0.0 0.0
19:13 20.3 15.3 73 1021.6 2.2 N 5.4 0.0 0.0
19:14 20.3 15.3 73 1021.5 3.8 W 5.4 0.0 0.0
19:15 20.3 15.3 73 1021.4 4.5 W 5.4 0.0 0.0
19:16 20.3 15.1 72 1021.5 4.5 N 5.4 0.0 0.0
19:17 20.3 15.1 72 1021.6 4.5 W 5.4 0.0 0.0
19:19 20.3 15.1 72 1021.5 3.8 W 5.4 0.0 0.0
19:20 20.3 14.9 71 1021.5 3.8 NE 5.4 0.0 0.0
19:21 20.2 14.8 71 1021.3 3.8 N 4.5 0.0 0.0
19:22 20.2 14.8 71 1021.4 3.1 SW 4.5 0.0 0.0
19:23 20.2 14.8 71 1021.4 2.2 N 4.5 0.0 0.0
19:24 20.2 14.8 71 1021.6 1.6 NW 4.5 0.0 0.0
19:25 20.2 14.8 71 1021.5 2.2 NW 4.5 0.0 0.0
19:26 20.2 15.0 72 1021.5 3.1 W 4.5 0.0 0.0
19:27 20.2 14.8 71 1021.5 4.5 NW 4.5 0.0 0.0
19:28 20.2 14.8 71 1021.5 1.6 W 4.5 0.0 0.0
19:29 20.2 14.8 71 1021.6 1.6 W 4.5 0.0 0.0
19:30 20.2 14.8 71 1021.5 3.1 W 4.5 0.0 0.0
19:31 20.2 14.8 71 1021.6 2.2 W 4.5 0.0 0.0
19:32 20.2 14.8 71 1021.4 2.2 N 4.5 0.0 0.0
19:33 20.2 14.8 71 1021.5 2.2 WNW 4.5 0.0 0.0
19:34 20.2 14.8 71 1021.6 2.2 WSW 4.5 0.0 0.0
19:35 20.2 14.8 71 1021.5 2.2 NW 4.5 0.0 0.0
19:37 20.2 14.8 71 1021.5 3.1 N 4.5 0.0 0.0
19:38 20.2 14.8 71 1021.7 2.2 W 3.1 0.0 0.0
19:39 20.2 14.8 71 1021.6 2.2 NW 3.8 0.0 0.0
19:40 20.2 14.8 71 1021.5 2.2 SW 3.8 0.0 0.0
19:41 20.2 14.8 71 1021.4 2.2 NW 3.8 0.0 0.0
19:42 20.2 14.8 71 1021.6 3.1 W 3.8 0.0 0.0
19:43 20.2 14.8 71 1021.6 2.2 N 3.8 0.0 0.0
19:44 20.2 14.8 71 1021.5 1.6 NW 3.8 0.0 0.0
19:45 20.2 14.8 71 1021.4 1.6 NW 3.8 0.0 0.0
19:46 20.2 14.8 71 1021.6 3.1 NW 3.8 0.0 0.0
19:47 20.2 14.8 71 1021.6 2.2 N 3.8 0.0 0.0
19:48 20.2 14.6 70 1021.5 3.1 NE 3.8 0.0 0.0
19:49 20.2 14.8 71 1021.6 1.6 WSW 3.1 0.0 0.0
19:50 20.2 14.8 71 1021.7 1.6 NW 3.1 0.0 0.0
19:51 20.2 14.8 71 1021.5 2.2 WNW 3.1 0.0 0.0
19:52 20.2 14.6 70 1021.6 3.8 W 3.8 0.0 0.0
19:53 20.2 14.6 70 1021.6 3.1 NW 3.8 0.0 0.0
19:54 20.2 14.6 70 1021.6 2.2 N 3.8 0.0 0.0
19:55 20.2 14.6 70 1021.6 2.2 NW 3.8 0.0 0.0
19:57 20.2 14.6 70 1021.7 3.1 W 3.8 0.0 0.0
19:58 20.2 14.6 70 1021.8 3.1 NW 3.8 0.0 0.0
19:59 20.2 14.6 70 1021.8 2.2 NW 3.8 0.0 0.0
20:00 20.2 14.6 70 1021.5 3.1 NW 3.8 0.0 0.0
20:01 20.2 14.6 70 1021.6 3.1 NW 3.8 0.0 0.0
20:02 20.2 14.6 70 1021.8 3.8 NW 3.8 0.0 0.0
20:03 20.2 14.6 70 1021.6 3.1 NW 3.8 0.0 0.0
20:04 20.2 14.6 70 1021.6 3.8 W 3.8 0.0 0.0
20:05 20.2 14.6 70 1021.6 3.8 N 3.8 0.0 0.0
20:06 20.1 14.5 70 1021.6 3.8 W 3.8 0.0 0.0
20:07 20.1 14.5 70 1021.6 3.8 W 3.8 0.0 0.0
20:08 20.1 14.2 69 1021.6 2.2 NW 3.8 0.0 0.0
20:09 20.1 14.2 69 1021.8 2.2 NW 3.8 0.0 0.0
20:10 20.1 14.2 69 1021.7 3.1 NW 3.8 0.0 0.0
20:11 20.0 14.2 69 1021.8 3.8 NW 3.8 0.0 0.0
20:12 20.1 14.2 69 1021.8 3.1 W 3.8 0.0 0.0
20:13 20.0 14.2 69 1021.6 1.6 E 3.8 0.0 0.0
20:14 20.0 14.2 69 1021.7 2.2 NNE 3.8 0.0 0.0
20:16 20.0 14.2 69 1021.7 2.2 NW 3.8 0.0 0.0
20:17 20.0 14.2 69 1021.7 0.7 NW 3.8 0.0 0.0
20:18 20.0 14.2 69 1021.5 1.6 NW 3.8 0.0 0.0
20:19 19.9 14.3 70 1021.6 2.2 WNW 3.8 0.0 0.0
20:20 20.0 14.4 70 1021.7 1.6 N 3.8 0.0 0.0
20:21 20.0 14.4 70 1021.5 2.2 NW 3.1 0.0 0.0
20:22 20.0 14.4 70 1021.7 0.7 N 2.2 0.0 0.0
20:23 20.0 14.4 70 1021.5 0.7 NW 2.2 0.0 0.0
20:24 20.0 14.4 70 1021.6 1.6 NW 2.2 0.0 0.0
20:25 20.0 14.4 70 1021.5 3.1 N 3.1 0.0 0.0
20:26 20.0 14.4 70 1021.8 2.2 N 3.1 0.0 0.0
20:27 19.9 14.3 70 1021.6 1.6 NE 3.1 0.0 0.0
20:28 20.0 14.4 70 1021.5 2.2 NW 3.1 0.0 0.0
20:29 19.9 14.3 70 1021.6 1.6 N 3.8 0.0 0.0
20:30 19.9 14.3 70 1021.7 2.2 N 3.8 0.0 0.0
20:31 19.9 14.3 70 1021.6 1.6 N 3.8 0.0 0.0
20:32 19.9 14.3 70 1021.6 0.7 N 3.8 0.0 0.0
20:33 19.9 14.3 70 1021.5 0.7 N 3.8 0.0 0.0
20:35 19.8 14.2 70 1021.6 1.6 NW 3.8 0.0 0.0
20:36 19.8 14.2 70 1021.5 1.6 NW 3.8 0.0 0.0
20:37 19.8 14.2 70 1021.4 0.7 N 3.8 0.0 0.0
20:38 19.7 14.1 70 1021.4 0.7 N 3.8 0.0 0.0
20:39 19.7 14.1 70 1021.5 1.6 N 2.2 0.0 0.0
20:40 19.7 14.3 71 1021.4 2.2 N 2.2 0.0 0.0
20:41 19.7 14.3 71 1021.4 1.6 NW 2.2 0.0 0.0
20:42 19.6 14.2 71 1021.4 1.6 NW 2.2 0.0 0.0
20:43 19.6 14.2 71 1021.3 0.7 N 2.2 0.0 0.0
20:44 19.6 14.2 71 1021.4 0.7 N 2.2 0.0 0.0
20:45 19.6 14.2 71 1021.4 0.7 N 2.2 0.0 0.0
20:46 19.6 14.2 71 1021.4 0.7 NW 2.2 0.0 0.0
20:47 19.5 14.1 71 1021.5 1.6 N 2.2 0.0 0.0
20:48 19.5 14.1 71 1021.4 0.7 NW 2.2 0.0 0.0
20:49 19.5 14.1 71 1021.3 0.7 NW 2.2 0.0 0.0
20:50 19.5 14.1 71 1021.5 1.6 NW 2.2 0.0 0.0
20:51 19.4 14.0 71 1021.5 0.7 N 1.6 0.0 0.0
20:52 19.4 14.0 71 1021.4 0.7 N 1.6 0.0 0.0
20:54 19.3 14.1 72 1021.5 0.7 NW 1.6 0.0 0.0
20:55 19.3 14.1 72 1021.5 0.7 NW 1.6 0.0 0.0
20:56 19.3 14.1 72 1021.3 0.0 NW 1.6 0.0 0.0
20:57 19.3 14.1 72 1021.3 0.7 NW 1.6 0.0 0.0
20:58 19.2 14.0 72 1021.3 1.6 NW 1.6 0.0 0.0
20:59 19.2 14.0 72 1021.5 0.7 N 1.6 0.0 0.0
21:00 19.2 14.0 72 1021.3 1.6 NW 1.6 0.0 0.0
21:01 19.2 14.0 72 1021.3 1.6 NW 1.6 0.0 0.0
21:02 19.2 14.0 72 1021.4 2.2 NW 2.2 0.0 0.0
21:03 19.2 14.3 73 1021.4 2.2 NW 2.2 0.0 0.0
21:04 19.2 14.3 73 1021.4 2.2 NW 2.2 0.0 0.0
21:05 19.1 14.2 73 1021.4 2.2 NW 2.2 0.0 0.0
21:06 19.1 14.2 73 1021.2 1.6 NW 2.2 0.0 0.0
21:07 19.1 14.2 73 1021.2 2.2 NW 2.2 0.0 0.0
21:08 19.1 14.2 73 1021.5 1.6 N 2.2 0.0 0.0
21:09 19.0 14.1 73 1021.4 1.6 N 2.2 0.0 0.0
21:10 19.0 14.1 73 1021.5 1.6 NW 2.2 0.0 0.0
21:11 19.0 14.3 74 1021.4 2.2 N 2.2 0.0 0.0
21:12 18.9 14.2 74 1021.4 2.2 N 2.2 0.0 0.0
21:14 18.9 14.2 74 1021.5 2.2 NW 2.2 0.0 0.0
21:15 18.8 14.1 74 1021.3 2.2 NW 2.2 0.0 0.0
21:16 18.8 14.1 74 1021.2 2.2 N 2.2 0.0 0.0
21:17 18.8 14.1 74 1021.3 1.6 NW 2.2 0.0 0.0
21:18 18.8 14.3 75 1021.3 1.6 NW 2.2 0.0 0.0
21:19 18.8 14.3 75 1021.3 0.7 N 2.2 0.0 0.0
21:20 18.7 14.2 75 1021.2 1.6 W 2.2 0.0 0.0
21:21 18.7 14.2 75 1021.3 0.7 NW 2.2 0.0 0.0
21:22 18.7 14.2 75 1021.3 1.6 NW 2.2 0.0 0.0
21:23 18.7 14.2 75 1021.3 1.6 NW 2.2 0.0 0.0
21:24 18.7 14.2 75 1021.3 1.6 NW 2.2 0.0 0.0
21:25 18.7 14.2 75 1021.3 1.6 NW 2.2 0.0 0.0
21:26 18.6 14.1 75 1021.3 0.7 NW 2.2 0.0 0.0
21:27 18.6 14.1 75 1021.3 2.2 N 2.2 0.0 0.0
21:28 18.6 14.3 76 1021.3 1.6 NW 2.2 0.0 0.0
21:29 18.6 14.3 76 1021.3 0.7 NW 2.2 0.0 0.0
21:30 18.6 14.3 76 1021.3 0.7 N 2.2 0.0 0.0
21:31 18.5 14.2 76 1021.4 1.6 N 2.2 0.0 0.0
21:33 18.5 14.2 76 1021.3 1.6 NW 2.2 0.0 0.0
21:34 18.5 14.2 76 1021.4 0.7 N 2.2 0.0 0.0
21:35 18.5 14.2 76 1021.3 2.2 WNW 2.2 0.0 0.0
21:36 18.4 14.1 76 1021.5 1.6 NW 2.2 0.0 0.0
21:37 18.4 14.1 76 1021.5 0.0 NW 2.2 0.0 0.0
21:38 18.4 14.1 76 1021.4 0.7 NW 2.2 0.0 0.0
21:39 18.4 14.1 76 1021.3 0.7 NE 2.2 0.0 0.0
21:40 18.3 14.2 77 1021.3 2.2 NW 2.2 0.0 0.0
21:41 18.3 14.2 77 1021.5 1.6 N 2.2 0.0 0.0
21:42 18.3 14.2 77 1021.4 1.6 N 2.2 0.0 0.0
21:43 18.3 14.2 77 1021.4 3.1 NW 3.1 0.0 0.0
21:44 18.3 14.2 77 1021.3 2.2 NW 3.1 0.0 0.0
21:45 18.2 14.1 77 1021.3 3.1 N 3.8 0.0 0.0
21:46 18.2 14.1 77 1021.4 2.2 NW 3.8 0.0 0.0
21:47 18.2 14.1 77 1021.3 2.2 N 3.8 0.0 0.0
21:48 18.2 14.1 77 1021.5 1.6 N 3.8 0.0 0.0
21:49 18.2 14.1 77 1021.3 3.8 SE 3.8 0.0 0.0
21:50 18.1 14.2 78 1021.4 2.2 N 3.8 0.0 0.0
21:52 18.1 14.2 78 1021.4 2.2 NW 3.8 0.0 0.0
21:53 18.1 14.2 78 1021.3 3.8 NW 3.8 0.0 0.0
21:54 18.1 14.2 78 1021.3 2.2 NW 3.8 0.0 0.0
21:55 18.1 14.2 78 1021.3 3.8 NW 3.8 0.0 0.0
21:56 18.1 14.4 79 1021.4 3.1 E 3.8 0.0 0.0
21:57 18.0 14.3 79 1021.4 3.8 E 3.8 0.0 0.0
21:58 18.0 14.3 79 1021.4 3.1 W 3.8 0.0 0.0
21:59 18.0 14.3 79 1021.5 3.8 NE 3.8 0.0 0.0
22:00 18.0 14.3 79 1021.3 1.6 NW 3.8 0.0 0.0
22:01 18.0 14.3 79 1021.3 1.6 NW 3.8 0.0 0.0
22:02 18.0 14.3 79 1021.4 1.6 NW 3.8 0.0 0.0
22:03 18.0 14.3 79 1021.3 1.6 NW 3.8 0.0 0.0
22:04 18.0 14.3 79 1021.4 1.6 NW 3.8 0.0 0.0
22:05 18.0 14.3 79 1021.4 1.6 NW 3.8 0.0 0.0
22:06 18.0 14.5 80 1021.3 3.1 N 3.8 0.0 0.0
22:07 18.0 14.5 80 1021.5 3.1 NW 3.8 0.0 0.0
22:08 17.9 14.4 80 1021.5 2.2 NW 3.8 0.0 0.0
22:09 17.9 14.4 80 1021.3 2.2 NW 3.8 0.0 0.0
22:11 17.9 14.4 80 1021.3 1.6 NE 3.1 0.0 0.0
22:12 17.9 14.4 80 1021.3 2.2 N 3.1 0.0 0.0
22:13 17.9 14.4 80 1021.3 3.1 N 3.1 0.0 0.0
22:14 17.9 14.6 81 1021.3 2.2 N 3.1 0.0 0.0
22:15 17.9 14.4 80 1021.3 1.6 N 3.1 0.0 0.0
22:16 17.9 14.4 80 1021.3 1.6 N 3.1 0.0 0.0
22:17 17.9 14.6 81 1021.3 1.6 N 3.1 0.0 0.0
22:18 17.9 14.6 81 1021.5 1.6 NW 3.1 0.0 0.0
22:19 17.8 14.5 81 1021.4 2.2 N 3.1 0.0 0.0
22:20 17.9 14.6 81 1021.4 2.2 N 3.1 0.0 0.0
22:21 17.9 14.6 81 1021.3 2.2 NW 3.1 0.0 0.0
22:22 17.8 14.5 81 1021.3 1.6 NW 3.1 0.0 0.0
22:23 17.8 14.5 81 1021.4 2.2 NW 3.1 0.0 0.0
22:24 17.8 14.5 81 1021.5 2.2 NW 3.1 0.0 0.0
22:25 17.8 14.5 81 1021.6 3.8 N 3.8 0.0 0.0
22:26 17.8 14.5 81 1021.4 3.1 NW 3.8 0.0 0.0
22:27 17.8 14.5 81 1021.4 2.2 NW 3.8 0.0 0.0
22:28 17.8 14.5 81 1021.5 3.1 NW 3.8 0.0 0.0
22:30 17.8 14.5 81 1021.4 3.1 W 3.8 0.0 0.0
22:31 17.7 14.4 81 1021.5 2.2 WNW 3.8 0.0 0.0
22:32 17.7 14.4 81 1021.5 2.2 NW 3.8 0.0 0.0
22:33 17.7 14.4 81 1021.6 2.2 W 3.8 0.0 0.0
22:34 17.7 14.4 81 1021.4 2.2 N 3.8 0.0 0.0
22:35 17.7 14.4 81 1021.4 0.7 N 3.8 0.0 0.0
22:36 17.7 14.4 81 1021.6 1.6 N 3.8 0.0 0.0
22:37 17.7 14.4 81 1021.5 0.7 NW 3.8 0.0 0.0
22:38 17.6 14.3 81 1021.5 3.1 W 3.8 0.0 0.0
22:39 17.6 14.3 81 1021.5 0.7 N 3.1 0.0 0.0
22:40 17.6 14.3 81 1021.5 1.6 NW 3.1 0.0 0.0
22:41 17.6 14.3 81 1021.6 0.7 NW 3.1 0.0 0.0
22:42 17.6 14.3 81 1021.5 1.6 N 3.1 0.0 0.0
22:43 17.6 14.3 81 1021.5 3.1 N 3.1 0.0 0.0
22:44 17.6 14.3 81 1021.5 3.1 NE 3.1 0.0 0.0
22:45 17.6 14.3 81 1021.5 3.1 N 3.1 0.0 0.0
22:46 17.6 14.3 81 1021.6 2.2 NE 3.1 0.0 0.0
22:47 17.6 14.3 81 1021.5 2.2 N 3.1 0.0 0.0
22:48 17.6 14.3 81 1021.5 3.1 NE 3.1 0.0 0.0
22:49 17.6 14.3 81 1021.5 3.1 ENE 3.1 0.0 0.0
22:50 17.6 14.3 81 1021.5 3.1 N 3.1 0.0 0.0
22:51 17.5 14.2 81 1021.8 4.5 NE 4.5 0.0 0.0
22:52 17.5 14.2 81 1021.7 3.1 NE 4.5 0.0 0.0
22:53 17.5 14.2 81 1021.7 2.2 NE 4.5 0.0 0.0
22:54 17.5 14.2 81 1021.7 2.2 NE 4.5 0.0 0.0
22:55 17.5 14.2 81 1021.7 3.1 NE 4.5 0.0 0.0
22:56 17.5 14.2 81 1021.7 3.1 NE 4.5 0.0 0.0
22:57 17.5 14.2 81 1021.7 3.1 NE 4.5 0.0 0.0
22:58 17.4 14.1 81 1021.7 3.8 NE 4.5 0.0 0.0
22:59 17.4 14.1 81 1021.5 3.1 NE 4.5 0.0 0.0
23:00 17.4 14.1 81 1021.7 2.2 NE 4.5 0.0 0.0
23:01 17.4 14.1 81 1021.6 2.2 NE 3.8 0.0 0.0
23:02 17.4 14.1 81 1021.6 2.2 NE 3.8 0.0 0.0
23:03 17.4 14.1 81 1021.6 2.2 NE 3.8 0.0 0.0
23:04 17.4 14.1 81 1021.6 2.2 NE 3.8 0.0 0.0
23:05 17.4 14.1 81 1021.5 2.2 NE 3.8 0.0 0.0
23:06 17.4 14.1 81 1021.7 2.2 NE 3.8 0.0 0.0
23:07 17.4 14.1 81 1021.5 2.2 NE 3.8 0.0 0.0
23:08 17.4 14.1 81 1021.6 2.2 NE 3.1 0.0 0.0
23:09 17.4 14.1 81 1021.6 2.2 NE 3.1 0.0 0.0
23:10 17.3 14.2 82 1021.5 3.8 NW 4.5 0.0 0.0
23:11 17.3 14.2 82 1021.7 3.1 NE 4.5 0.0 0.0
23:12 17.4 14.3 82 1021.9 4.5 NE 4.5 0.0 0.0
23:13 17.5 14.4 82 1021.7 3.1 N 4.5 0.0 0.0
23:14 17.4 14.3 82 1021.6 3.1 NW 4.5 0.0 0.0
23:15 17.3 14.2 82 1021.7 3.1 NE 4.5 0.0 0.0
23:16 17.3 14.2 82 1021.7 2.2 NW 4.5 0.0 0.0
23:17 17.3 14.4 83 1021.8 2.2 NW 4.5 0.0 0.0
23:18 17.3 14.4 83 1021.6 1.6 N 4.5 0.0 0.0
23:19 17.3 14.4 83 1021.7 2.2 NE 4.5 0.0 0.0
23:20 17.3 14.4 83 1021.8 2.2 NW 4.5 0.0 0.0
23:21 17.3 14.4 83 1021.8 1.6 NE 4.5 0.0 0.0
23:22 17.3 14.4 83 1021.8 2.2 W 4.5 0.0 0.0
23:23 17.3 14.4 83 1021.6 0.0 NW 3.1 0.0 0.0
23:24 17.3 14.4 83 1021.7 1.6 N 3.1 0.0 0.0
23:25 17.3 14.4 83 1021.7 1.6 N 3.1 0.0 0.0
23:26 17.3 14.4 83 1021.8 3.8 N 3.8 0.0 0.0
23:27 17.3 14.4 83 1021.8 3.1 N 3.8 0.0 0.0
23:28 17.3 14.4 83 1021.7 2.2 N 3.8 0.0 0.0
23:30 17.3 14.4 83 1021.6 3.1 NW 3.8 0.0 0.0
23:31 17.4 14.5 83 1021.6 2.2 N 3.8 0.0 0.0
23:32 17.4 14.7 84 1021.6 1.6 N 3.8 0.0 0.0
23:33 17.4 14.7 84 1021.6 0.7 N 3.8 0.0 0.0
23:34 17.4 14.7 84 1021.6 0.7 N 3.8 0.0 0.0
23:35 17.4 14.7 84 1021.8 1.6 NW 3.8 0.0 0.0
23:36 17.4 14.7 84 1021.7 2.2 N 3.1 0.0 0.0
23:37 17.4 14.7 84 1021.7 1.6 NE 3.1 0.0 0.0
23:38 17.4 14.7 84 1021.5 2.2 E 3.1 0.0 0.0
23:39 17.4 14.7 84 1021.6 2.2 N 3.1 0.0 0.0
23:40 17.4 14.7 84 1021.6 2.2 N 3.1 0.0 0.0
23:41 17.4 14.7 84 1021.6 3.1 NE 3.1 0.0 0.0
23:42 17.4 14.7 84 1021.6 1.6 N 3.1 0.0 0.0
23:43 17.4 14.7 84 1021.5 2.2 N 3.1 0.0 0.0
23:44 17.4 14.7 84 1021.6 1.6 N 3.1 0.0 0.0
23:45 17.4 14.7 84 1021.6 0.0 NE 3.1 0.0 0.0
23:46 17.4 14.7 84 1021.5 3.1 NW 3.1 0.0 0.0
23:47 17.4 14.7 84 1021.6 1.6 NW 3.1 0.0 0.0
23:48 17.4 14.9 85 1021.7 2.2 N 3.1 0.0 0.0
23:49 17.4 14.9 85 1021.8 2.2 NW 3.8 0.0 0.0
23:50 17.4 14.9 85 1021.7 2.2 N 3.8 0.0 0.0
23:51 17.4 14.9 85 1021.7 1.6 NW 3.8 0.0 0.0
23:52 17.4 14.9 85 1021.8 1.6 NW 3.8 0.0 0.0
23:53 17.4 14.9 85 1021.8 2.2 N 3.8 0.0 0.0
23:54 17.4 14.9 85 1021.9 3.1 NW 3.8 0.0 0.0
23:55 17.4 14.9 85 1021.9 1.6 N 3.8 0.0 0.0
23:56 17.4 14.9 85 1021.9 1.6 N 3.8 0.0 0.0
23:57 17.4 14.9 85 1021.8 2.2 N 3.8 0.0 0.0
23:58 17.4 14.9 85 1021.7 2.2 NE 3.8 0.0 0.0

UK - WEATHER STATION TOPSITES - UK World Weather Websites

This is a private weather station, never base important decisions or events on data from this weather station. Although every effort has been made to make the data as accurate as possible it does not meet MetOffice standards. It is proved as a guide of local weather conditions. We accept no liability for any loss which may arise from use of the data.

Copyright © Carnkie Weather 2009 - 2018.